Wetterdaten: Donnerstag, 27.06.2019
Datum Zeit Temp. Aussen Temp. o. S. +5cm Feuchte Auss Luftdruck Regen Sonnenschein Regendauer Solar Windben Empfang
27.06.2019 00:00 21,8 C 20,0 C 20,0 C 76 % 1024,9 hPa 0,0 l/m 0 min 0 min 0 W/m 9,7 km/h (2 Bft) 97,87 %
27.06.2019 00:02 21,8 C 20,0 C 20,0 C 76 % 1024,9 hPa 0,0 l/m 0 min 0 min 0 W/m 3,2 km/h (1 Bft) 15,38 %
27.06.2019 00:04 21,7 C 20,0 C 20,0 C 76 % 1025,0 hPa 0,0 l/m 0 min 0 min 0 W/m 6,4 km/h (2 Bft) 76,32 %
27.06.2019 00:08 21,7 C 20,0 C 20,0 C 77 % 1025,0 hPa 0,0 l/m 0 min 0 min 0 W/m 6,4 km/h (2 Bft) 97,87 %
27.06.2019 00:10 21,6 C 20,0 C 20,0 C 77 % 1024,9 hPa 0,0 l/m 0 min 0 min 0 W/m 6,4 km/h (2 Bft) 100,00 %
27.06.2019 00:12 21,6 C 20,0 C 20,0 C 77 % 1024,9 hPa 0,0 l/m 0 min 0 min 0 W/m 6,4 km/h (2 Bft) 97,92 %
27.06.2019 00:14 21,6 C 20,0 C 20,0 C 76 % 1024,9 hPa 0,0 l/m 0 min 0 min 0 W/m 6,4 km/h (2 Bft) 100,00 %
27.06.2019 00:16 21,5 C 20,0 C 20,0 C 77 % 1024,9 hPa 0,0 l/m 0 min 0 min 0 W/m 9,7 km/h (2 Bft) 100,00 %
27.06.2019 00:18 21,4 C 20,0 C 19,4 C 77 % 1024,9 hPa 0,0 l/m 0 min 0 min 0 W/m 9,7 km/h (2 Bft) 97,87 %
27.06.2019 00:20 21,4 C 20,0 C 20,0 C 77 % 1024,9 hPa 0,0 l/m 0 min 0 min 0 W/m 6,4 km/h (2 Bft) 100,00 %
27.06.2019 00:22 21,4 C 20,0 C 19,4 C 77 % 1024,9 hPa 0,0 l/m 0 min 0 min 0 W/m 9,7 km/h (2 Bft) 100,00 %
27.06.2019 00:24 21,3 C 20,0 C 19,4 C 77 % 1025,0 hPa 0,0 l/m 0 min 0 min 0 W/m 19,3 km/h (3 Bft) 97,87 %
27.06.2019 00:26 21,3 C 19,4 C 19,4 C 77 % 1024,9 hPa 0,0 l/m 0 min 0 min 0 W/m 6,4 km/h (2 Bft) 100,00 %
27.06.2019 00:28 21,3 C 19,4 C 19,4 C 77 % 1024,9 hPa 0,0 l/m 0 min 0 min 0 W/m 3,2 km/h (1 Bft) 100,00 %
27.06.2019 00:30 21,2 C 19,4 C 19,4 C 78 % 1024,9 hPa 0,0 l/m 0 min 0 min 0 W/m 3,2 km/h (1 Bft) 100,00 %
27.06.2019 00:32 21,2 C 19,4 C 19,4 C 78 % 1024,9 hPa 0,0 l/m 0 min 0 min 0 W/m 6,4 km/h (2 Bft) 100,00 %
27.06.2019 00:34 21,2 C 19,4 C 19,4 C 78 % 1024,9 hPa 0,0 l/m 0 min 0 min 0 W/m 6,4 km/h (2 Bft) 100,00 %
27.06.2019 00:36 21,1 C 19,4 C 19,4 C 78 % 1025,0 hPa 0,0 l/m 0 min 0 min 0 W/m 6,4 km/h (2 Bft) 97,62 %
27.06.2019 00:38 21,1 C 19,4 C 19,4 C 78 % 1025,0 hPa 0,0 l/m 0 min 0 min 0 W/m 6,4 km/h (2 Bft) 100,00 %
27.06.2019 00:40 21,1 C 19,4 C 19,4 C 78 % 1024,9 hPa 0,0 l/m 0 min 0 min 0 W/m 6,4 km/h (2 Bft) 97,87 %
27.06.2019 00:42 21,0 C 19,4 C 19,4 C 78 % 1024,9 hPa 0,0 l/m 0 min 0 min 0 W/m 6,4 km/h (2 Bft) 100,00 %
27.06.2019 00:44 21,0 C 19,4 C 19,4 C 78 % 1024,9 hPa 0,0 l/m 0 min 0 min 0 W/m 6,4 km/h (2 Bft) 97,92 %
27.06.2019 00:46 20,9 C 19,4 C 18,9 C 78 % 1025,0 hPa 0,0 l/m 0 min 0 min 0 W/m 3,2 km/h (1 Bft) 97,92 %
27.06.2019 00:48 20,9 C 18,9 C 18,9 C 79 % 1025,0 hPa 0,0 l/m 0 min 0 min 0 W/m 6,4 km/h (2 Bft) 97,87 %
27.06.2019 00:50 20,9 C 18,9 C 18,9 C 79 % 1025,0 hPa 0,0 l/m 0 min 0 min 0 W/m 6,4 km/h (2 Bft) 97,87 %
27.06.2019 00:52 20,8 C 18,9 C 18,9 C 79 % 1025,1 hPa 0,0 l/m 0 min 0 min 0 W/m 6,4 km/h (2 Bft) 97,87 %
27.06.2019 00:54 20,8 C 18,9 C 18,9 C 79 % 1025,1 hPa 0,0 l/m 0 min 0 min 0 W/m 6,4 km/h (2 Bft) 100,00 %
27.06.2019 00:56 20,7 C 18,9 C 18,9 C 79 % 1025,1 hPa 0,0 l/m 0 min 0 min 0 W/m 6,4 km/h (2 Bft) 95,65 %
27.06.2019 00:58 20,7 C 18,9 C 18,9 C 79 % 1025,2 hPa 0,0 l/m 0 min 0 min 0 W/m 6,4 km/h (2 Bft) 97,87 %
27.06.2019 01:00 20,6 C 18,9 C 18,9 C 79 % 1025,2 hPa 0,0 l/m 0 min 0 min 0 W/m 9,7 km/h (2 Bft) 97,87 %
27.06.2019 01:02 20,6 C 18,9 C 18,9 C 80 % 1025,2 hPa 0,0 l/m 0 min 0 min 0 W/m 6,4 km/h (2 Bft) 97,87 %
27.06.2019 01:04 20,5 C 18,9 C 18,9 C 79 % 1025,3 hPa 0,0 l/m 0 min 0 min 0 W/m 6,4 km/h (2 Bft) 97,62 %
27.06.2019 01:06 20,4 C 18,9 C 18,9 C 79 % 1025,3 hPa 0,0 l/m 0 min 0 min 0 W/m 9,7 km/h (2 Bft) 97,92 %
27.06.2019 01:08 20,4 C 18,9 C 18,9 C 79 % 1025,3 hPa 0,0 l/m 0 min 0 min 0 W/m 12,9 km/h (3 Bft) 95,74 %
27.06.2019 01:10 20,3 C 18,9 C 18,9 C 79 % 1025,3 hPa 0,0 l/m 0 min 0 min 0 W/m 9,7 km/h (2 Bft) 93,75 %
27.06.2019 01:12 20,3 C 18,9 C 18,9 C 79 % 1025,4 hPa 0,0 l/m 0 min 0 min 0 W/m 6,4 km/h (2 Bft) 97,92 %
27.06.2019 01:14 20,2 C 18,9 C 18,9 C 79 % 1025,4 hPa 0,0 l/m 0 min 0 min 0 W/m 6,4 km/h (2 Bft) 95,74 %
27.06.2019 01:16 20,2 C 18,9 C 18,9 C 79 % 1025,4 hPa 0,0 l/m 0 min 0 min 0 W/m 9,7 km/h (2 Bft) 95,83 %
27.06.2019 01:18 20,1 C 18,3 C 18,3 C 79 % 1025,5 hPa 0,0 l/m 0 min 0 min 0 W/m 9,7 km/h (2 Bft) 95,74 %
27.06.2019 01:20 20,1 C 18,3 C 18,3 C 79 % 1025,4 hPa 0,0 l/m 0 min 0 min 0 W/m 9,7 km/h (2 Bft) 95,65 %
27.06.2019 01:22 20,0 C 18,3 C 18,3 C 79 % 1025,4 hPa 0,0 l/m 0 min 0 min 0 W/m 6,4 km/h (2 Bft) 93,62 %
27.06.2019 01:24 19,9 C 18,3 C 18,3 C 79 % 1025,5 hPa 0,0 l/m 0 min 0 min 0 W/m 9,7 km/h (2 Bft) 95,74 %
27.06.2019 01:26 19,9 C 18,3 C 18,3 C 79 % 1025,5 hPa 0,0 l/m 0 min 0 min 0 W/m 6,4 km/h (2 Bft) 91,49 %
27.06.2019 01:28 19,8 C 18,3 C 18,3 C 79 % 1025,5 hPa 0,0 l/m 0 min 0 min 0 W/m 9,7 km/h (2 Bft) 95,74 %
27.06.2019 01:30 19,8 C 18,3 C 18,3 C 79 % 1025,5 hPa 0,0 l/m 0 min 0 min 0 W/m 9,7 km/h (2 Bft) 92,68 %
27.06.2019 01:32 19,7 C 18,3 C 18,3 C 79 % 1025,6 hPa 0,0 l/m 0 min 0 min 0 W/m 6,4 km/h (2 Bft) 91,49 %
27.06.2019 01:34 19,7 C 17,8 C 17,8 C 79 % 1025,7 hPa 0,0 l/m 0 min 0 min 0 W/m 9,7 km/h (2 Bft) 95,83 %
27.06.2019 01:36 19,6 C 17,8 C 17,8 C 79 % 1025,7 hPa 0,0 l/m 0 min 0 min 0 W/m 9,7 km/h (2 Bft) 93,75 %
27.06.2019 01:38 19,6 C 17,8 C 17,8 C 80 % 1025,7 hPa 0,0 l/m 0 min 0 min 0 W/m 6,4 km/h (2 Bft) 95,74 %
27.06.2019 01:40 19,5 C 17,8 C 17,8 C 80 % 1025,9 hPa 0,0 l/m 0 min 0 min 0 W/m 9,7 km/h (2 Bft) 93,75 %
27.06.2019 01:42 19,4 C 17,8 C 17,8 C 80 % 1025,8 hPa 0,0 l/m 0 min 0 min 0 W/m 9,7 km/h (2 Bft) 95,74 %
27.06.2019 01:44 19,4 C 17,8 C 17,8 C 80 % 1025,8 hPa 0,0 l/m 0 min 0 min 0 W/m 9,7 km/h (2 Bft) 95,83 %
27.06.2019 01:46 19,3 C 17,8 C 17,8 C 80 % 1025,9 hPa 0,0 l/m 0 min 0 min 0 W/m 6,4 km/h (2 Bft) 95,74 %
27.06.2019 01:48 19,3 C 17,8 C 17,8 C 80 % 1025,9 hPa 0,0 l/m 0 min 0 min 0 W/m 6,4 km/h (2 Bft) 95,74 %
27.06.2019 01:50 19,2 C 17,8 C 17,8 C 80 % 1025,9 hPa 0,0 l/m 0 min 0 min 0 W/m 16,1 km/h (3 Bft) 95,74 %
27.06.2019 01:52 19,2 C 17,8 C 17,8 C 80 % 1025,9 hPa 0,0 l/m 0 min 0 min 0 W/m 9,7 km/h (2 Bft) 93,62 %
27.06.2019 01:54 19,1 C 17,8 C 17,8 C 80 % 1026,0 hPa 0,0 l/m 0 min 0 min 0 W/m 9,7 km/h (2 Bft) 95,74 %
27.06.2019 01:56 19,1 C 17,2 C 17,2 C 80 % 1026,0 hPa 0,0 l/m 0 min 0 min 0 W/m 6,4 km/h (2 Bft) 95,65 %
27.06.2019 01:58 19,0 C 17,2 C 17,2 C 80 % 1026,0 hPa 0,0 l/m 0 min 0 min 0 W/m 6,4 km/h (2 Bft) 95,24 %
27.06.2019 02:00 19,0 C 17,2 C 17,2 C 80 % 1026,0 hPa 0,0 l/m 0 min 0 min 0 W/m 6,4 km/h (2 Bft) 95,83 %
27.06.2019 02:02 18,9 C 17,2 C 17,2 C 81 % 1026,0 hPa 0,0 l/m 0 min 0 min 0 W/m 6,4 km/h (2 Bft) 95,92 %
27.06.2019 02:04 18,9 C 17,2 C 17,2 C 81 % 1026,0 hPa 0,0 l/m 0 min 0 min 0 W/m 3,2 km/h (1 Bft) 95,92 %
27.06.2019 02:06 18,8 C 17,2 C 17,2 C 81 % 1026,0 hPa 0,0 l/m 0 min 0 min 0 W/m 16,1 km/h (3 Bft) 97,83 %
27.06.2019 02:08 18,8 C 17,2 C 17,2 C 81 % 1026,0 hPa 0,0 l/m 0 min 0 min 0 W/m 9,7 km/h (2 Bft) 95,74 %
27.06.2019 02:10 18,7 C 17,2 C 17,2 C 81 % 1026,1 hPa 0,0 l/m 0 min 0 min 0 W/m 6,4 km/h (2 Bft) 97,87 %
27.06.2019 02:12 18,7 C 17,2 C 17,2 C 81 % 1026,1 hPa 0,0 l/m 0 min 0 min 0 W/m 6,4 km/h (2 Bft) 97,87 %
27.06.2019 02:14 18,6 C 16,7 C 17,2 C 81 % 1026,1 hPa 0,0 l/m 0 min 0 min 0 W/m 9,7 km/h (2 Bft) 97,87 %
27.06.2019 02:16 18,6 C 16,7 C 17,2 C 81 % 1026,0 hPa 0,0 l/m 0 min 0 min 0 W/m 9,7 km/h (2 Bft) 97,56 %
27.06.2019 02:18 18,5 C 16,7 C 17,2 C 82 % 1026,0 hPa 0,0 l/m 0 min 0 min 0 W/m 6,4 km/h (2 Bft) 95,74 %
27.06.2019 02:20 18,4 C 16,7 C 16,7 C 81 % 1026,0 hPa 0,0 l/m 0 min 0 min 0 W/m 9,7 km/h (2 Bft) 97,92 %
27.06.2019 02:22 18,4 C 16,7 C 16,7 C 81 % 1026,0 hPa 0,0 l/m 0 min 0 min 0 W/m 9,7 km/h (2 Bft) 97,87 %
27.06.2019 02:24 18,3 C 16,7 C 16,7 C 82 % 1026,1 hPa 0,0 l/m 0 min 0 min 0 W/m 9,7 km/h (2 Bft) 97,92 %
27.06.2019 02:26 18,3 C 16,7 C 16,7 C 82 % 1026,1 hPa 0,0 l/m 0 min 0 min 0 W/m 6,4 km/h (2 Bft) 97,87 %
27.06.2019 02:28 18,2 C 16,7 C 16,7 C 82 % 1026,1 hPa 0,0 l/m 0 min 0 min 0 W/m 16,1 km/h (3 Bft) 100,00 %
27.06.2019 02:30 18,1 C 16,7 C 16,7 C 82 % 1026,1 hPa 0,0 l/m 0 min 0 min 0 W/m 12,9 km/h (3 Bft) 100,00 %
27.06.2019 02:32 18,1 C 16,7 C 16,7 C 82 % 1026,1 hPa 0,0 l/m 0 min 0 min 0 W/m 16,1 km/h (3 Bft) 100,00 %
27.06.2019 02:34 18,0 C 16,7 C 16,7 C 82 % 1026,1 hPa 0,0 l/m 0 min 0 min 0 W/m 6,4 km/h (2 Bft) 100,00 %
27.06.2019 02:36 18,0 C 16,1 C 16,7 C 82 % 1026,1 hPa 0,0 l/m 0 min 0 min 0 W/m 6,4 km/h (2 Bft) 97,87 %
27.06.2019 02:38 17,9 C 16,1 C 16,7 C 82 % 1026,1 hPa 0,0 l/m 0 min 0 min 0 W/m 9,7 km/h (2 Bft) 100,00 %
27.06.2019 02:40 17,9 C 16,1 C 16,7 C 83 % 1026,2 hPa 0,0 l/m 0 min 0 min 0 W/m 16,1 km/h (3 Bft) 95,74 %
27.06.2019 02:42 17,8 C 16,1 C 16,7 C 83 % 1026,1 hPa 0,0 l/m 0 min 0 min 0 W/m 6,4 km/h (2 Bft) 97,87 %
27.06.2019 02:44 17,8 C 16,1 C 16,7 C 83 % 1026,2 hPa 0,0 l/m 0 min 0 min 0 W/m 6,4 km/h (2 Bft) 100,00 %
27.06.2019 02:46 17,7 C 16,1 C 16,1 C 83 % 1026,3 hPa 0,0 l/m 0 min 0 min 0 W/m 9,7 km/h (2 Bft) 100,00 %
27.06.2019 02:48 17,7 C 16,1 C 16,1 C 84 % 1026,3 hPa 0,0 l/m 0 min 0 min 0 W/m 9,7 km/h (2 Bft) 97,87 %
27.06.2019 02:50 17,7 C 16,1 C 16,7 C 84 % 1026,3 hPa 0,0 l/m 0 min 0 min 0 W/m 9,7 km/h (2 Bft) 98,00 %
27.06.2019 02:52 17,6 C 16,1 C 16,1 C 84 % 1026,2 hPa 0,0 l/m 0 min 0 min 0 W/m 6,4 km/h (2 Bft) 100,00 %
27.06.2019 02:54 17,6 C 16,1 C 16,1 C 84 % 1026,3 hPa 0,0 l/m 0 min 0 min 0 W/m 9,7 km/h (2 Bft) 100,00 %
27.06.2019 02:56 17,6 C 16,1 C 16,1 C 84 % 1026,3 hPa 0,0 l/m 0 min 0 min 0 W/m 6,4 km/h (2 Bft) 100,00 %
27.06.2019 02:58 17,5 C 16,1 C 16,1 C 84 % 1026,3 hPa 0,0 l/m 0 min 0 min 0 W/m 6,4 km/h (2 Bft) 100,00 %
27.06.2019 03:00 17,5 C 16,1 C 16,1 C 84 % 1026,3 hPa 0,0 l/m 0 min 0 min 0 W/m 3,2 km/h (1 Bft) 100,00 %
27.06.2019 03:02 17,4 C 16,1 C 16,1 C 84 % 1026,3 hPa 0,0 l/m 0 min 0 min 0 W/m 3,2 km/h (1 Bft) 100,00 %
27.06.2019 03:04 17,4 C 15,6 C 16,1 C 84 % 1026,3 hPa 0,0 l/m 0 min 0 min 0 W/m 6,4 km/h (2 Bft) 97,83 %
27.06.2019 03:06 17,4 C 15,6 C 16,1 C 84 % 1026,3 hPa 0,0 l/m 0 min 0 min 0 W/m 6,4 km/h (2 Bft) 100,00 %
27.06.2019 03:08 17,4 C 15,6 C 16,1 C 85 % 1026,3 hPa 0,0 l/m 0 min 0 min 0 W/m 3,2 km/h (1 Bft) 100,00 %
27.06.2019 03:10 17,3 C 15,6 C 16,1 C 84 % 1026,3 hPa 0,0 l/m 0 min 0 min 0 W/m 6,4 km/h (2 Bft) 100,00 %
27.06.2019 03:12 17,3 C 15,6 C 16,1 C 85 % 1026,3 hPa 0,0 l/m 0 min 0 min 0 W/m 6,4 km/h (2 Bft) 100,00 %
27.06.2019 03:14 17,2 C 15,6 C 15,6 C 85 % 1026,3 hPa 0,0 l/m 0 min 0 min 0 W/m 6,4 km/h (2 Bft) 100,00 %
27.06.2019 03:16 17,2 C 15,6 C 15,6 C 85 % 1026,3 hPa 0,0 l/m 0 min 0 min 0 W/m 3,2 km/h (1 Bft) 97,87 %
27.06.2019 03:18 17,2 C 15,6 C 15,6 C 85 % 1026,3 hPa 0,0 l/m 0 min 0 min 0 W/m 6,4 km/h (2 Bft) 100,00 %
27.06.2019 03:20 17,2 C 15,6 C 15,6 C 85 % 1026,3 hPa 0,0 l/m 0 min 0 min 0 W/m 6,4 km/h (2 Bft) 97,87 %
27.06.2019 03:22 17,1 C 15,6 C 15,6 C 85 % 1026,3 hPa 0,0 l/m 0 min 0 min 0 W/m 6,4 km/h (2 Bft) 100,00 %
27.06.2019 03:24 17,1 C 15,6 C 15,6 C 85 % 1026,3 hPa 0,0 l/m 0 min 0 min 0 W/m 6,4 km/h (2 Bft) 100,00 %
27.06.2019 03:26 17,0 C 15,6 C 15,6 C 85 % 1026,3 hPa 0,0 l/m 0 min 0 min 0 W/m 9,7 km/h (2 Bft) 100,00 %
27.06.2019 03:28 16,9 C 15,6 C 15,6 C 85 % 1026,4 hPa 0,0 l/m 0 min 0 min 0 W/m 3,2 km/h (1 Bft) 100,00 %
27.06.2019 03:30 16,9 C 15,6 C 15,6 C 86 % 1026,4 hPa 0,0 l/m 0 min 0 min 0 W/m 9,7 km/h (2 Bft) 100,00 %
27.06.2019 03:32 16,9 C 15,6 C 15,6 C 86 % 1026,4 hPa 0,0 l/m 0 min 0 min 0 W/m 6,4 km/h (2 Bft) 97,87 %
27.06.2019 03:34 16,9 C 15,6 C 15,6 C 86 % 1026,3 hPa 0,0 l/m 0 min 0 min 0 W/m 3,2 km/h (1 Bft) 97,87 %
27.06.2019 03:36 16,8 C 15,6 C 15,6 C 86 % 1026,3 hPa 0,0 l/m 0 min 0 min 0 W/m 3,2 km/h (1 Bft) 97,87 %
27.06.2019 03:38 16,8 C 15,0 C 15,6 C 86 % 1026,4 hPa 0,0 l/m 0 min 0 min 0 W/m 6,4 km/h (2 Bft) 97,87 %
27.06.2019 03:40 16,7 C 15,0 C 15,6 C 86 % 1026,4 hPa 0,0 l/m 0 min 0 min 0 W/m 6,4 km/h (2 Bft) 97,83 %
27.06.2019 03:42 16,7 C 15,0 C 15,6 C 86 % 1026,4 hPa 0,0 l/m 0 min 0 min 0 W/m 6,4 km/h (2 Bft) 95,74 %
27.06.2019 03:44 16,7 C 15,0 C 15,6 C 86 % 1026,4 hPa 0,0 l/m 0 min 0 min 0 W/m 3,2 km/h (1 Bft) 93,62 %
27.06.2019 03:46 16,7 C 15,0 C 15,0 C 86 % 1026,4 hPa 0,0 l/m 0 min 0 min 0 W/m 6,4 km/h (2 Bft) 95,74 %
27.06.2019 03:48 16,6 C 15,0 C 15,0 C 86 % 1026,4 hPa 0,0 l/m 0 min 0 min 0 W/m 3,2 km/h (1 Bft) 93,62 %
27.06.2019 03:50 16,6 C 15,0 C 15,0 C 86 % 1026,4 hPa 0,0 l/m 0 min 0 min 0 W/m 3,2 km/h (1 Bft) 97,83 %
27.06.2019 03:52 16,6 C 15,0 C 15,0 C 87 % 1026,5 hPa 0,0 l/m 0 min 0 min 0 W/m 6,4 km/h (2 Bft) 95,74 %
27.06.2019 03:54 16,6 C 15,0 C 15,0 C 87 % 1026,5 hPa 0,0 l/m 0 min 0 min 0 W/m 6,4 km/h (2 Bft) 95,74 %
27.06.2019 03:56 16,5 C 15,0 C 15,0 C 87 % 1026,4 hPa 0,0 l/m 0 min 0 min 0 W/m 6,4 km/h (2 Bft) 97,87 %
27.06.2019 03:58 16,5 C 15,0 C 15,0 C 87 % 1026,5 hPa 0,0 l/m 0 min 0 min 0 W/m 6,4 km/h (2 Bft) 91,49 %
27.06.2019 04:00 16,4 C 15,0 C 15,0 C 87 % 1026,4 hPa 0,0 l/m 0 min 0 min 0 W/m 9,7 km/h (2 Bft) 95,74 %
27.06.2019 04:02 16,4 C 15,0 C 15,0 C 87 % 1026,5 hPa 0,0 l/m 0 min 0 min 0 W/m 3,2 km/h (1 Bft) 93,75 %
27.06.2019 04:04 16,4 C 15,0 C 15,0 C 87 % 1026,5 hPa 0,0 l/m 0 min 0 min 0 W/m 3,2 km/h (1 Bft) 93,62 %
27.06.2019 04:06 16,4 C 15,0 C 15,0 C 87 % 1026,4 hPa 0,0 l/m 0 min 0 min 0 W/m 3,2 km/h (1 Bft) 91,49 %
27.06.2019 04:08 16,3 C 15,0 C 15,0 C 88 % 1026,4 hPa 0,0 l/m 0 min 0 min 0 W/m 6,4 km/h (2 Bft) 95,74 %
27.06.2019 04:10 16,3 C 15,0 C 15,0 C 88 % 1026,4 hPa 0,0 l/m 0 min 0 min 0 W/m 3,2 km/h (1 Bft) 95,74 %
27.06.2019 04:12 16,3 C 15,0 C 15,0 C 88 % 1026,4 hPa 0,0 l/m 0 min 0 min 0 W/m 6,4 km/h (2 Bft) 93,62 %
27.06.2019 04:14 16,3 C 15,0 C 15,0 C 88 % 1026,5 hPa 0,0 l/m 0 min 0 min 0 W/m 3,2 km/h (1 Bft) 95,65 %
27.06.2019 04:16 16,3 C 15,0 C 15,0 C 88 % 1026,6 hPa 0,0 l/m 0 min 0 min 0 W/m 6,4 km/h (2 Bft) 95,74 %
27.06.2019 04:18 16,3 C 14,4 C 15,0 C 88 % 1026,7 hPa 0,0 l/m 0 min 0 min 0 W/m 6,4 km/h (2 Bft) 95,74 %
27.06.2019 04:20 16,2 C 14,4 C 15,0 C 88 % 1026,6 hPa 0,0 l/m 0 min 0 min 0 W/m 6,4 km/h (2 Bft) 95,74 %
27.06.2019 04:22 16,2 C 14,4 C 15,0 C 88 % 1026,7 hPa 0,0 l/m 0 min 0 min 0 W/m 3,2 km/h (1 Bft) 93,62 %
27.06.2019 04:24 16,2 C 14,4 C 15,0 C 88 % 1026,7 hPa 0,0 l/m 0 min 0 min 0 W/m 3,2 km/h (1 Bft) 93,48 %
27.06.2019 04:26 16,2 C 14,4 C 15,0 C 88 % 1026,7 hPa 0,0 l/m 0 min 0 min 0 W/m 3,2 km/h (1 Bft) 97,87 %
27.06.2019 04:28 16,2 C 14,4 C 14,4 C 88 % 1026,7 hPa 0,0 l/m 0 min 0 min 0 W/m 6,4 km/h (2 Bft) 97,87 %
27.06.2019 04:30 16,1 C 14,4 C 14,4 C 89 % 1026,7 hPa 0,0 l/m 0 min 0 min 0 W/m 3,2 km/h (1 Bft) 97,87 %
27.06.2019 04:32 16,1 C 14,4 C 14,4 C 89 % 1026,7 hPa 0,0 l/m 0 min 0 min 0 W/m 6,4 km/h (2 Bft) 97,87 %
27.06.2019 04:34 16,1 C 14,4 C 14,4 C 89 % 1026,7 hPa 0,0 l/m 0 min 0 min 0 W/m 6,4 km/h (2 Bft) 95,74 %
27.06.2019 04:36 16,1 C 14,4 C 15,0 C 89 % 1026,7 hPa 0,0 l/m 0 min 0 min 0 W/m 3,2 km/h (1 Bft) 95,65 %
27.06.2019 04:38 16,0 C 14,4 C 14,4 C 89 % 1026,7 hPa 0,0 l/m 0 min 0 min 0 W/m 3,2 km/h (1 Bft) 97,87 %
27.06.2019 04:40 16,0 C 14,4 C 14,4 C 89 % 1026,7 hPa 0,0 l/m 0 min 0 min 0 W/m 6,4 km/h (2 Bft) 100,00 %
27.06.2019 04:42 15,9 C 14,4 C 15,0 C 89 % 1026,7 hPa 0,0 l/m 0 min 0 min 0 W/m 6,4 km/h (2 Bft) 100,00 %
27.06.2019 04:44 15,9 C 14,4 C 15,0 C 89 % 1026,7 hPa 0,0 l/m 0 min 0 min 0 W/m 3,2 km/h (1 Bft) 100,00 %
27.06.2019 04:46 15,9 C 14,4 C 14,4 C 89 % 1026,8 hPa 0,0 l/m 0 min 0 min 0 W/m 3,2 km/h (1 Bft) 97,87 %
27.06.2019 04:48 15,9 C 14,4 C 14,4 C 89 % 1026,8 hPa 0,0 l/m 0 min 0 min 0 W/m 3,2 km/h (1 Bft) 100,00 %
27.06.2019 04:50 15,9 C 14,4 C 14,4 C 89 % 1026,8 hPa 0,0 l/m 0 min 0 min 0 W/m 6,4 km/h (2 Bft) 100,00 %
27.06.2019 04:52 15,8 C 14,4 C 14,4 C 89 % 1026,8 hPa 0,0 l/m 0 min 0 min 0 W/m 3,2 km/h (1 Bft) 100,00 %
27.06.2019 04:54 15,8 C 14,4 C 14,4 C 89 % 1026,8 hPa 0,0 l/m 0 min 0 min 0 W/m 3,2 km/h (1 Bft) 97,87 %
27.06.2019 04:56 15,8 C 14,4 C 14,4 C 89 % 1026,8 hPa 0,0 l/m 0 min 0 min 0 W/m 3,2 km/h (1 Bft) 100,00 %
27.06.2019 04:58 15,8 C 14,4 C 14,4 C 89 % 1026,8 hPa 0,0 l/m 0 min 0 min 0 W/m 6,4 km/h (2 Bft) 100,00 %
27.06.2019 05:00 15,7 C 14,4 C 14,4 C 89 % 1026,8 hPa 0,0 l/m 0 min 0 min 0 W/m 6,4 km/h (2 Bft) 100,00 %
27.06.2019 05:02 15,7 C 14,4 C 14,4 C 89 % 1026,8 hPa 0,0 l/m 0 min 0 min 0 W/m 6,4 km/h (2 Bft) 100,00 %
27.06.2019 05:04 15,7 C 14,4 C 14,4 C 89 % 1026,9 hPa 0,0 l/m 0 min 0 min 0 W/m 9,7 km/h (2 Bft) 95,74 %
27.06.2019 05:06 15,6 C 14,4 C 14,4 C 89 % 1026,9 hPa 0,0 l/m 0 min 0 min 0 W/m 6,4 km/h (2 Bft) 100,00 %
27.06.2019 05:08 15,6 C 14,4 C 14,4 C 89 % 1026,9 hPa 0,0 l/m 0 min 0 min 0 W/m 6,4 km/h (2 Bft) 100,00 %
27.06.2019 05:10 15,6 C 14,4 C 14,4 C 89 % 1026,8 hPa 0,0 l/m 0 min 0 min 0 W/m 6,4 km/h (2 Bft) 97,87 %
27.06.2019 05:12 15,6 C 14,4 C 14,4 C 89 % 1026,8 hPa 0,0 l/m 0 min 0 min 0 W/m 6,4 km/h (2 Bft) 100,00 %
27.06.2019 05:14 15,5 C 14,4 C 14,4 C 89 % 1026,8 hPa 0,0 l/m 0 min 0 min 0 W/m 6,4 km/h (2 Bft) 100,00 %
27.06.2019 05:16 15,5 C 14,4 C 14,4 C 90 % 1026,9 hPa 0,0 l/m 0 min 0 min 0 W/m 6,4 km/h (2 Bft) 95,74 %
27.06.2019 05:18 15,4 C 14,4 C 14,4 C 90 % 1026,9 hPa 0,0 l/m 0 min 0 min 0 W/m 3,2 km/h (1 Bft) 97,87 %
27.06.2019 05:20 15,4 C 14,4 C 14,4 C 90 % 1026,9 hPa 0,0 l/m 0 min 0 min 0 W/m 3,2 km/h (1 Bft) 97,87 %
27.06.2019 05:22 15,4 C 14,4 C 14,4 C 90 % 1026,9 hPa 0,0 l/m 0 min 0 min 0 W/m 6,4 km/h (2 Bft) 97,87 %
27.06.2019 05:24 15,4 C 14,4 C 14,4 C 90 % 1026,9 hPa 0,0 l/m 0 min 0 min 0 W/m 3,2 km/h (1 Bft) 97,83 %
27.06.2019 05:26 15,4 C 14,4 C 14,4 C 90 % 1026,9 hPa 0,0 l/m 0 min 0 min 5 W/m 6,4 km/h (2 Bft) 97,87 %
27.06.2019 05:28 15,4 C 14,4 C 14,4 C 90 % 1026,9 hPa 0,0 l/m 0 min 0 min 5 W/m 6,4 km/h (2 Bft) 97,87 %
27.06.2019 05:30 15,4 C 14,4 C 14,4 C 90 % 1026,9 hPa 0,0 l/m 0 min 0 min 5 W/m 3,2 km/h (1 Bft) 97,87 %
27.06.2019 05:32 15,4 C 14,4 C 14,4 C 90 % 1026,9 hPa 0,0 l/m 0 min 0 min 5 W/m 6,4 km/h (2 Bft) 97,87 %
27.06.2019 05:34 15,3 C 14,4 C 14,4 C 90 % 1026,9 hPa 0,0 l/m 0 min 0 min 7 W/m 6,4 km/h (2 Bft) 95,74 %
27.06.2019 05:36 15,3 C 14,4 C 14,4 C 90 % 1026,9 hPa 0,0 l/m 0 min 0 min 7 W/m 6,4 km/h (2 Bft) 95,65 %
27.06.2019 05:38 15,3 C 14,4 C 14,4 C 90 % 1026,9 hPa 0,0 l/m 0 min 0 min 7 W/m 6,4 km/h (2 Bft) 97,87 %
27.06.2019 05:40 15,3 C 14,4 C 14,4 C 90 % 1026,8 hPa 0,0 l/m 0 min 0 min 9 W/m 3,2 km/h (1 Bft) 97,87 %
27.06.2019 05:42 15,3 C 14,4 C 14,4 C 89 % 1026,8 hPa 0,0 l/m 0 min 0 min 9 W/m 6,4 km/h (2 Bft) 97,87 %
27.06.2019 05:44 15,3 C 14,4 C 14,4 C 89 % 1026,8 hPa 0,0 l/m 0 min 0 min 11 W/m 6,4 km/h (2 Bft) 97,87 %
27.06.2019 05:46 15,3 C 14,4 C 14,4 C 89 % 1026,8 hPa 0,0 l/m 0 min 0 min 11 W/m 6,4 km/h (2 Bft) 97,83 %
27.06.2019 05:48 15,3 C 14,4 C 14,4 C 89 % 1026,9 hPa 0,0 l/m 0 min 0 min 12 W/m 3,2 km/h (1 Bft) 97,87 %
27.06.2019 05:50 15,3 C 14,4 C 14,4 C 89 % 1026,9 hPa 0,0 l/m 0 min 0 min 13 W/m 6,4 km/h (2 Bft) 97,87 %
27.06.2019 05:52 15,3 C 14,4 C 14,4 C 89 % 1027,0 hPa 0,0 l/m 0 min 0 min 14 W/m 6,4 km/h (2 Bft) 97,87 %
27.06.2019 05:54 15,3 C 14,4 C 14,4 C 89 % 1026,9 hPa 0,0 l/m 0 min 0 min 16 W/m 6,4 km/h (2 Bft) 97,87 %
27.06.2019 05:56 15,3 C 14,4 C 14,4 C 89 % 1026,9 hPa 0,0 l/m 0 min 0 min 16 W/m 9,7 km/h (2 Bft) 97,87 %
27.06.2019 05:58 15,3 C 14,4 C 15,0 C 89 % 1026,9 hPa 0,0 l/m 0 min 0 min 18 W/m 6,4 km/h (2 Bft) 97,96 %
27.06.2019 06:00 15,3 C 14,4 C 15,0 C 89 % 1027,1 hPa 0,0 l/m 0 min 0 min 19 W/m 6,4 km/h (2 Bft) 97,87 %
27.06.2019 06:02 15,3 C 15,0 C 15,0 C 89 % 1027,1 hPa 0,0 l/m 0 min 0 min 22 W/m 3,2 km/h (1 Bft) 95,74 %
27.06.2019 06:04 15,3 C 15,0 C 15,0 C 90 % 1027,1 hPa 0,0 l/m 0 min 0 min 23 W/m 6,4 km/h (2 Bft) 97,87 %
27.06.2019 06:08 15,4 C 15,0 C 15,0 C 90 % 1027,2 hPa 0,0 l/m 0 min 0 min 23 W/m 9,7 km/h (2 Bft) 96,77 %
27.06.2019 06:10 15,4 C 15,0 C 15,0 C 90 % 1027,2 hPa 0,0 l/m 0 min 0 min 25 W/m 9,7 km/h (2 Bft) 95,74 %
27.06.2019 06:12 15,4 C 15,0 C 15,0 C 90 % 1027,1 hPa 0,0 l/m 0 min 0 min 25 W/m 6,4 km/h (2 Bft) 95,74 %
27.06.2019 06:14 15,4 C 15,0 C 15,0 C 90 % 1027,1 hPa 0,0 l/m 0 min 0 min 26 W/m 3,2 km/h (1 Bft) 97,87 %
27.06.2019 06:16 15,4 C 15,0 C 15,0 C 89 % 1027,1 hPa 0,0 l/m 0 min 0 min 30 W/m 6,4 km/h (2 Bft) 97,87 %
27.06.2019 06:18 15,4 C 15,0 C 15,0 C 90 % 1027,1 hPa 0,0 l/m 0 min 0 min 30 W/m 3,2 km/h (1 Bft) 97,87 %
27.06.2019 06:20 15,4 C 15,0 C 15,0 C 89 % 1027,1 hPa 0,0 l/m 0 min 0 min 32 W/m 6,4 km/h (2 Bft) 97,83 %
27.06.2019 06:22 15,4 C 15,0 C 15,0 C 90 % 1027,2 hPa 0,0 l/m 0 min 0 min 36 W/m 6,4 km/h (2 Bft) 97,87 %
27.06.2019 06:24 15,4 C 15,0 C 15,0 C 89 % 1027,2 hPa 0,0 l/m 0 min 0 min 34 W/m 6,4 km/h (2 Bft) 97,87 %
27.06.2019 06:26 15,4 C 15,0 C 15,0 C 89 % 1027,1 hPa 0,0 l/m 0 min 0 min 33 W/m 6,4 km/h (2 Bft) 100,00 %
27.06.2019 06:28 15,4 C 15,0 C 15,0 C 89 % 1027,1 hPa 0,0 l/m 0 min 0 min 37 W/m 6,4 km/h (2 Bft) 97,87 %
27.06.2019 06:30 15,5 C 15,0 C 15,0 C 89 % 1027,3 hPa 0,0 l/m 0 min 0 min 36 W/m 6,4 km/h (2 Bft) 95,74 %
27.06.2019 06:32 15,5 C 15,0 C 15,0 C 89 % 1027,2 hPa 0,0 l/m 0 min 0 min 42 W/m 9,7 km/h (2 Bft) 95,65 %
27.06.2019 06:34 15,5 C 15,0 C 15,0 C 89 % 1027,2 hPa 0,0 l/m 0 min 0 min 41 W/m 6,4 km/h (2 Bft) 93,62 %
27.06.2019 06:36 15,5 C 15,0 C 15,0 C 89 % 1027,2 hPa 0,0 l/m 0 min 0 min 49 W/m 6,4 km/h (2 Bft) 95,74 %
27.06.2019 06:38 15,5 C 15,0 C 15,0 C 89 % 1027,2 hPa 0,0 l/m 0 min 0 min 55 W/m 6,4 km/h (2 Bft) 95,74 %
27.06.2019 06:40 15,5 C 15,6 C 15,0 C 89 % 1027,2 hPa 0,0 l/m 0 min 0 min 57 W/m 6,4 km/h (2 Bft) 93,62 %
27.06.2019 06:42 15,5 C 15,6 C 15,0 C 89 % 1027,3 hPa 0,0 l/m 0 min 0 min 61 W/m 12,9 km/h (3 Bft) 95,74 %
27.06.2019 06:44 15,5 C 15,6 C 15,0 C 89 % 1027,2 hPa 0,0 l/m 0 min 0 min 58 W/m 9,7 km/h (2 Bft) 95,65 %
27.06.2019 06:46 15,6 C 15,6 C 15,0 C 89 % 1027,3 hPa 0,0 l/m 0 min 0 min 63 W/m 9,7 km/h (2 Bft) 95,74 %
27.06.2019 06:48 15,6 C 15,6 C 15,0 C 89 % 1027,2 hPa 0,0 l/m 0 min 0 min 64 W/m 6,4 km/h (2 Bft) 95,74 %
27.06.2019 06:50 15,6 C 15,6 C 15,0 C 89 % 1027,3 hPa 0,0 l/m 0 min 0 min 61 W/m 6,4 km/h (2 Bft) 95,74 %
27.06.2019 06:52 15,6 C 15,6 C 15,0 C 89 % 1027,2 hPa 0,0 l/m 0 min 0 min 65 W/m 9,7 km/h (2 Bft) 93,62 %
27.06.2019 06:54 15,6 C 15,6 C 15,0 C 89 % 1027,2 hPa 0,0 l/m 0 min 0 min 65 W/m 9,7 km/h (2 Bft) 95,74 %
27.06.2019 06:56 15,6 C 15,6 C 15,0 C 89 % 1027,2 hPa 0,0 l/m 0 min 0 min 70 W/m 16,1 km/h (3 Bft) 95,65 %
27.06.2019 06:58 15,6 C 15,6 C 15,0 C 88 % 1027,3 hPa 0,0 l/m 0 min 0 min 70 W/m 6,4 km/h (2 Bft) 93,62 %
27.06.2019 07:00 15,6 C 15,6 C 15,0 C 88 % 1027,2 hPa 0,0 l/m 0 min 0 min 79 W/m 12,9 km/h (3 Bft) 95,74 %
27.06.2019 07:02 15,6 C 15,6 C 15,6 C 88 % 1027,3 hPa 0,0 l/m 0 min 0 min 79 W/m 6,4 km/h (2 Bft) 95,74 %
27.06.2019 07:04 15,6 C 15,6 C 15,6 C 88 % 1027,3 hPa 0,0 l/m 0 min 0 min 75 W/m 9,7 km/h (2 Bft) 95,74 %
27.06.2019 07:06 15,6 C 15,6 C 15,6 C 88 % 1027,3 hPa 0,0 l/m 0 min 0 min 74 W/m 9,7 km/h (2 Bft) 93,62 %
27.06.2019 07:08 15,7 C 15,6 C 15,6 C 88 % 1027,2 hPa 0,0 l/m 0 min 0 min 78 W/m 12,9 km/h (3 Bft) 97,83 %
27.06.2019 07:10 15,7 C 15,6 C 15,6 C 88 % 1027,3 hPa 0,0 l/m 0 min 0 min 84 W/m 6,4 km/h (2 Bft) 95,74 %
27.06.2019 07:12 15,7 C 16,1 C 15,6 C 88 % 1027,3 hPa 0,0 l/m 0 min 0 min 86 W/m 6,4 km/h (2 Bft) 97,87 %
27.06.2019 07:14 15,7 C 16,1 C 15,6 C 88 % 1027,3 hPa 0,0 l/m 0 min 0 min 91 W/m 9,7 km/h (2 Bft) 97,87 %
27.06.2019 07:16 15,7 C 16,1 C 15,6 C 88 % 1027,3 hPa 0,0 l/m 0 min 0 min 93 W/m 6,4 km/h (2 Bft) 97,87 %
27.06.2019 07:18 15,7 C 16,1 C 15,6 C 88 % 1027,4 hPa 0,0 l/m 0 min 0 min 98 W/m 9,7 km/h (2 Bft) 100,00 %
27.06.2019 07:20 15,8 C 16,1 C 15,6 C 88 % 1027,4 hPa 0,0 l/m 0 min 0 min 100 W/m 9,7 km/h (2 Bft) 100,00 %
27.06.2019 07:22 15,8 C 16,1 C 15,6 C 88 % 1027,3 hPa 0,0 l/m 0 min 0 min 97 W/m 9,7 km/h (2 Bft) 97,87 %
27.06.2019 07:24 15,8 C 16,1 C 16,1 C 88 % 1027,3 hPa 0,0 l/m 0 min 0 min 104 W/m 9,7 km/h (2 Bft) 100,00 %
27.06.2019 07:26 15,9 C 16,7 C 16,1 C 88 % 1027,3 hPa 0,0 l/m 0 min 0 min 112 W/m 9,7 km/h (2 Bft) 100,00 %
27.06.2019 07:28 15,9 C 16,7 C 16,1 C 88 % 1027,3 hPa 0,0 l/m 0 min 0 min 108 W/m 16,1 km/h (3 Bft) 100,00 %
27.06.2019 07:30 15,9 C 16,1 C 16,1 C 88 % 1027,4 hPa 0,0 l/m 0 min 0 min 94 W/m 9,7 km/h (2 Bft) 100,00 %
27.06.2019 07:32 15,9 C 16,1 C 16,1 C 87 % 1027,4 hPa 0,0 l/m 0 min 0 min 80 W/m 9,7 km/h (2 Bft) 97,87 %
27.06.2019 07:34 15,9 C 16,1 C 15,6 C 88 % 1027,4 hPa 0,0 l/m 0 min 0 min 72 W/m 6,4 km/h (2 Bft) 100,00 %
27.06.2019 07:36 16,0 C 16,1 C 15,6 C 87 % 1027,4 hPa 0,0 l/m 0 min 0 min 59 W/m 9,7 km/h (2 Bft) 100,00 %
27.06.2019 07:38 16,0 C 16,1 C 15,6 C 87 % 1027,4 hPa 0,0 l/m 0 min 0 min 54 W/m 6,4 km/h (2 Bft) 100,00 %
27.06.2019 07:40 16,0 C 16,1 C 15,6 C 87 % 1027,5 hPa 0,0 l/m 0 min 0 min 54 W/m 9,7 km/h (2 Bft) 97,87 %
27.06.2019 07:42 16,0 C 16,1 C 15,6 C 87 % 1027,5 hPa 0,0 l/m 0 min 0 min 54 W/m 9,7 km/h (2 Bft) 100,00 %
27.06.2019 07:44 16,0 C 16,1 C 15,6 C 86 % 1027,6 hPa 0,0 l/m 0 min 0 min 57 W/m 9,7 km/h (2 Bft) 100,00 %
27.06.2019 07:46 16,0 C 16,1 C 15,6 C 86 % 1027,7 hPa 0,0 l/m 0 min 0 min 58 W/m 16,1 km/h (3 Bft) 97,87 %
27.06.2019 07:48 16,0 C 16,1 C 15,6 C 86 % 1027,6 hPa 0,0 l/m 0 min 0 min 58 W/m 12,9 km/h (3 Bft) 100,00 %
27.06.2019 07:50 16,0 C 16,1 C 15,6 C 86 % 1027,7 hPa 0,0 l/m 0 min 0 min 59 W/m 16,1 km/h (3 Bft) 97,87 %
27.06.2019 07:52 16,1 C 16,1 C 15,6 C 86 % 1027,6 hPa 0,0 l/m 0 min 0 min 58 W/m 9,7 km/h (2 Bft) 100,00 %
27.06.2019 07:54 16,1 C 16,1 C 15,6 C 86 % 1027,6 hPa 0,0 l/m 0 min 0 min 58 W/m 6,4 km/h (2 Bft) 100,00 %
27.06.2019 07:56 16,1 C 16,1 C 15,6 C 86 % 1027,7 hPa 0,0 l/m 0 min 0 min 58 W/m 6,4 km/h (2 Bft) 100,00 %
27.06.2019 07:58 16,1 C 17,2 C 15,6 C 86 % 1027,7 hPa 0,0 l/m 0 min 0 min 58 W/m 6,4 km/h (2 Bft) 100,00 %
27.06.2019 08:00 16,1 C 18,9 C 15,6 C 86 % 1027,7 hPa 0,0 l/m 0 min 0 min 58 W/m 6,4 km/h (2 Bft) 100,00 %
27.06.2019 08:02 16,2 C 19,4 C 15,6 C 86 % 1027,7 hPa 0,0 l/m 0 min 0 min 58 W/m 9,7 km/h (2 Bft) 95,74 %
27.06.2019 08:04 16,2 C 20,0 C 16,1 C 86 % 1027,7 hPa 0,0 l/m 0 min 0 min 59 W/m 6,4 km/h (2 Bft) 100,00 %
27.06.2019 08:06 16,3 C 21,1 C 16,1 C 87 % 1027,7 hPa 0,0 l/m 0 min 0 min 60 W/m 6,4 km/h (2 Bft) 100,00 %
27.06.2019 08:08 16,3 C 21,1 C 16,1 C 87 % 1027,8 hPa 0,0 l/m 0 min 0 min 62 W/m 6,4 km/h (2 Bft) 100,00 %
27.06.2019 08:10 16,4 C 21,1 C 16,1 C 86 % 1027,7 hPa 0,0 l/m 0 min 0 min 63 W/m 9,7 km/h (2 Bft) 100,00 %
27.06.2019 08:12 16,4 C 21,7 C 16,1 C 86 % 1027,7 hPa 0,0 l/m 0 min 0 min 64 W/m 6,4 km/h (2 Bft) 100,00 %
27.06.2019 08:14 16,6 C 21,7 C 16,1 C 86 % 1027,7 hPa 0,0 l/m 0 min 0 min 65 W/m 12,9 km/h (3 Bft) 100,00 %
27.06.2019 08:16 16,7 C 21,7 C 16,7 C 86 % 1027,7 hPa 0,0 l/m 0 min 0 min 63 W/m 6,4 km/h (2 Bft) 97,87 %
27.06.2019 08:18 16,8 C 22,2 C 16,7 C 86 % 1027,6 hPa 0,0 l/m 0 min 0 min 62 W/m 3,2 km/h (1 Bft) 100,00 %
27.06.2019 08:20 16,9 C 22,2 C 16,7 C 85 % 1027,7 hPa 0,0 l/m 0 min 0 min 63 W/m 9,7 km/h (2 Bft) 100,00 %
27.06.2019 08:22 17,1 C 22,8 C 16,7 C 85 % 1027,7 hPa 0,0 l/m 0 min 0 min 64 W/m 9,7 km/h (2 Bft) 100,00 %
27.06.2019 08:24 17,2 C 22,8 C 17,2 C 85 % 1027,8 hPa 0,0 l/m 0 min 0 min 65 W/m 6,4 km/h (2 Bft) 100,00 %
27.06.2019 08:26 17,3 C 23,3 C 17,2 C 84 % 1027,7 hPa 0,0 l/m 0 min 0 min 66 W/m 9,7 km/h (2 Bft) 100,00 %
27.06.2019 08:28 17,5 C 23,3 C 18,9 C 84 % 1027,7 hPa 0,0 l/m 0 min 0 min 68 W/m 9,7 km/h (2 Bft) 100,00 %
27.06.2019 08:30 17,7 C 22,8 C 20,6 C 83 % 1027,8 hPa 0,0 l/m 0 min 0 min 71 W/m 12,9 km/h (3 Bft) 100,00 %
27.06.2019 08:32 17,8 C 22,8 C 22,2 C 82 % 1027,8 hPa 0,0 l/m 0 min 0 min 76 W/m 9,7 km/h (2 Bft) 100,00 %
27.06.2019 08:34 17,9 C 22,8 C 22,8 C 81 % 1027,8 hPa 0,0 l/m 0 min 0 min 76 W/m 9,7 km/h (2 Bft) 100,00 %
27.06.2019 08:36 18,1 C 22,8 C 23,9 C 81 % 1027,9 hPa 0,0 l/m 0 min 0 min 78 W/m 12,9 km/h (3 Bft) 100,00 %
27.06.2019 08:38 18,2 C 22,8 C 23,9 C 80 % 1027,8 hPa 0,0 l/m 0 min 0 min 77 W/m 12,9 km/h (3 Bft) 100,00 %
27.06.2019 08:40 18,3 C 23,3 C 24,4 C 80 % 1027,9 hPa 0,0 l/m 0 min 0 min 77 W/m 6,4 km/h (2 Bft) 97,83 %
27.06.2019 08:42 18,4 C 23,9 C 25,6 C 80 % 1027,8 hPa 0,0 l/m 0 min 0 min 76 W/m 6,4 km/h (2 Bft) 95,74 %
27.06.2019 08:44 18,5 C 23,3 C 25,0 C 79 % 1027,8 hPa 0,0 l/m 0 min 0 min 71 W/m 9,7 km/h (2 Bft) 97,87 %
27.06.2019 08:46 18,6 C 23,9 C 25,6 C 79 % 1027,8 hPa 0,0 l/m 0 min 0 min 69 W/m 6,4 km/h (2 Bft) 97,87 %
27.06.2019 08:48 18,7 C 23,9 C 25,6 C 79 % 1027,9 hPa 0,0 l/m 0 min 0 min 67 W/m 9,7 km/h (2 Bft) 95,74 %
27.06.2019 08:50 18,8 C 24,4 C 26,1 C 79 % 1027,9 hPa 0,0 l/m 0 min 0 min 67 W/m 9,7 km/h (2 Bft) 97,87 %
27.06.2019 08:52 18,9 C 24,4 C 26,1 C 79 % 1027,9 hPa 0,0 l/m 0 min 0 min 67 W/m 9,7 km/h (2 Bft) 97,83 %
27.06.2019 08:54 19,0 C 24,4 C 26,1 C 78 % 1027,8 hPa 0,0 l/m 0 min 0 min 71 W/m 6,4 km/h (2 Bft) 97,87 %
27.06.2019 08:56 19,1 C 23,9 C 25,6 C 77 % 1027,8 hPa 0,0 l/m 0 min 0 min 79 W/m 16,1 km/h (3 Bft) 93,62 %
27.06.2019 08:58 19,2 C 23,9 C 26,1 C 77 % 1027,9 hPa 0,0 l/m 0 min 0 min 92 W/m 9,7 km/h (2 Bft) 97,87 %
27.06.2019 09:00 19,2 C 23,9 C 26,1 C 76 % 1027,9 hPa 0,0 l/m 0 min 0 min 111 W/m 9,7 km/h (2 Bft) 95,74 %
27.06.2019 09:02 19,3 C 24,4 C 26,1 C 76 % 1027,9 hPa 0,0 l/m 0 min 0 min 136 W/m 6,4 km/h (2 Bft) 95,74 %
27.06.2019 09:04 19,4 C 24,4 C 26,1 C 75 % 1028,0 hPa 0,0 l/m 0 min 0 min 169 W/m 9,7 km/h (2 Bft) 95,65 %
27.06.2019 09:06 19,4 C 24,4 C 26,7 C 75 % 1028,0 hPa 0,0 l/m 0 min 0 min 205 W/m 6,4 km/h (2 Bft) 95,74 %
27.06.2019 09:08 19,5 C 23,9 C 26,1 C 75 % 1028,0 hPa 0,0 l/m 0 min 0 min 248 W/m 9,7 km/h (2 Bft) 95,74 %
27.06.2019 09:10 19,6 C 24,4 C 26,1 C 76 % 1027,9 hPa 0,0 l/m 2 min 0 min 294 W/m 9,7 km/h (2 Bft) 95,83 %
27.06.2019 09:12 19,6 C 24,4 C 26,7 C 76 % 1027,9 hPa 0,0 l/m 2 min 0 min 340 W/m 12,9 km/h (3 Bft) 95,74 %
27.06.2019 09:14 19,7 C 25,0 C 26,7 C 75 % 1028,0 hPa 0,0 l/m 2 min 0 min 384 W/m 9,7 km/h (2 Bft) 95,65 %
27.06.2019 09:16 19,7 C 24,4 C 26,7 C 74 % 1028,1 hPa 0,0 l/m 2 min 0 min 423 W/m 16,1 km/h (3 Bft) 89,36 %
27.06.2019 09:18 19,8 C 25,0 C 27,8 C 74 % 1028,0 hPa 0,0 l/m 2 min 0 min 459 W/m 6,4 km/h (2 Bft) 95,74 %
27.06.2019 09:20 19,9 C 25,6 C 27,8 C 75 % 1028,0 hPa 0,0 l/m 2 min 0 min 488 W/m 6,4 km/h (2 Bft) 95,74 %
27.06.2019 09:22 20,0 C 26,1 C 28,9 C 75 % 1028,0 hPa 0,0 l/m 2 min 0 min 509 W/m 9,7 km/h (2 Bft) 95,74 %
27.06.2019 09:24 20,1 C 26,1 C 28,9 C 74 % 1028,0 hPa 0,0 l/m 2 min 0 min 527 W/m 6,4 km/h (2 Bft) 93,62 %
27.06.2019 09:26 20,2 C 26,1 C 28,9 C 73 % 1028,0 hPa 0,0 l/m 2 min 0 min 536 W/m 6,4 km/h (2 Bft) 95,74 %
27.06.2019 09:28 20,3 C 26,1 C 28,3 C 73 % 1028,0 hPa 0,0 l/m 2 min 0 min 546 W/m 9,7 km/h (2 Bft) 95,65 %
27.06.2019 09:30 20,3 C 26,1 C 28,3 C 72 % 1027,9 hPa 0,0 l/m 2 min 0 min 548 W/m 9,7 km/h (2 Bft) 95,74 %
27.06.2019 09:32 20,4 C 26,7 C 28,3 C 73 % 1028,0 hPa 0,0 l/m 2 min 0 min 556 W/m 6,4 km/h (2 Bft) 97,87 %
27.06.2019 09:34 20,4 C 26,7 C 28,9 C 72 % 1028,0 hPa 0,0 l/m 2 min 0 min 561 W/m 9,7 km/h (2 Bft) 93,62 %
27.06.2019 09:36 20,6 C 25,6 C 28,3 C 72 % 1028,1 hPa 0,0 l/m 2 min 0 min 569 W/m 12,9 km/h (3 Bft) 95,74 %
27.06.2019 09:38 20,6 C 26,1 C 28,9 C 71 % 1028,1 hPa 0,0 l/m 2 min 0 min 571 W/m 9,7 km/h (2 Bft) 95,65 %
27.06.2019 09:40 20,7 C 26,7 C 30,0 C 72 % 1028,0 hPa 0,0 l/m 2 min 0 min 574 W/m 6,4 km/h (2 Bft) 97,87 %
27.06.2019 09:42 20,8 C 27,2 C 30,0 C 72 % 1028,0 hPa 0,0 l/m 2 min 0 min 586 W/m 6,4 km/h (2 Bft) 97,87 %
27.06.2019 09:44 20,8 C 26,1 C 27,8 C 71 % 1028,0 hPa 0,0 l/m 2 min 0 min 593 W/m 16,1 km/h (3 Bft) 97,87 %
27.06.2019 09:46 20,8 C 26,1 C 28,3 C 70 % 1028,0 hPa 0,0 l/m 2 min 0 min 597 W/m 9,7 km/h (2 Bft) 100,00 %
27.06.2019 09:48 20,8 C 26,1 C 28,3 C 70 % 1028,0 hPa 0,0 l/m 2 min 0 min 597 W/m 9,7 km/h (2 Bft) 95,74 %
27.06.2019 09:50 20,9 C 26,7 C 28,3 C 70 % 1028,1 hPa 0,0 l/m 2 min 0 min 605 W/m 6,4 km/h (2 Bft) 97,83 %
27.06.2019 09:52 20,9 C 26,1 C 28,9 C 70 % 1028,0 hPa 0,0 l/m 2 min 0 min 616 W/m 9,7 km/h (2 Bft) 95,74 %
27.06.2019 09:54 21,0 C 27,2 C 29,4 C 70 % 1028,2 hPa 0,0 l/m 2 min 0 min 621 W/m 6,4 km/h (2 Bft) 97,87 %
27.06.2019 09:56 21,1 C 27,2 C 29,4 C 69 % 1028,1 hPa 0,0 l/m 2 min 0 min 627 W/m 6,4 km/h (2 Bft) 95,74 %
27.06.2019 09:58 21,3 C 28,3 C 30,0 C 70 % 1028,1 hPa 0,0 l/m 2 min 0 min 634 W/m 6,4 km/h (2 Bft) 97,87 %
27.06.2019 10:00 21,4 C 28,9 C 30,6 C 70 % 1028,1 hPa 0,0 l/m 2 min 0 min 636 W/m 6,4 km/h (2 Bft) 97,87 %
27.06.2019 10:02 21,5 C 29,4 C 31,1 C 69 % 1028,1 hPa 0,0 l/m 2 min 0 min 636 W/m 3,2 km/h (1 Bft) 97,87 %
27.06.2019 10:04 21,6 C 28,3 C 30,6 C 70 % 1028,1 hPa 0,0 l/m 2 min 0 min 646 W/m 16,1 km/h (3 Bft) 97,83 %
27.06.2019 10:06 21,7 C 29,4 C 31,1 C 70 % 1028,1 hPa 0,0 l/m 2 min 0 min 656 W/m 6,4 km/h (2 Bft) 95,74 %
27.06.2019 10:08 21,8 C 29,4 C 31,7 C 69 % 1028,1 hPa 0,0 l/m 2 min 0 min 665 W/m 9,7 km/h (2 Bft) 97,87 %
27.06.2019 10:10 21,9 C 28,3 C 32,2 C 67 % 1028,2 hPa 0,0 l/m 2 min 0 min 673 W/m 9,7 km/h (2 Bft) 97,87 %
27.06.2019 10:12 21,9 C 28,3 C 31,1 C 67 % 1028,1 hPa 0,0 l/m 2 min 0 min 683 W/m 9,7 km/h (2 Bft) 97,87 %
27.06.2019 10:14 21,9 C 27,8 C 30,0 C 65 % 1028,1 hPa 0,0 l/m 2 min 0 min 683 W/m 9,7 km/h (2 Bft) 97,83 %
27.06.2019 10:16 21,9 C 27,8 C 30,6 C 65 % 1028,1 hPa 0,0 l/m 2 min 0 min 685 W/m 6,4 km/h (2 Bft) 97,87 %
27.06.2019 10:18 22,1 C 28,9 C 31,1 C 67 % 1028,0 hPa 0,0 l/m 2 min 0 min 695 W/m 6,4 km/h (2 Bft) 95,74 %
27.06.2019 10:20 22,2 C 29,4 C 32,2 C 67 % 1028,1 hPa 0,0 l/m 2 min 0 min 700 W/m 3,2 km/h (1 Bft) 97,87 %
27.06.2019 10:22 22,2 C 29,4 C 32,2 C 67 % 1028,1 hPa 0,0 l/m 2 min 0 min 704 W/m 6,4 km/h (2 Bft) 93,62 %
27.06.2019 10:24 22,3 C 28,3 C 32,2 C 66 % 1028,0 hPa 0,0 l/m 2 min 0 min 713 W/m 6,4 km/h (2 Bft) 97,87 %
27.06.2019 10:26 22,3 C 27,8 C 32,8 C 64 % 1028,0 hPa 0,0 l/m 2 min 0 min 716 W/m 6,4 km/h (2 Bft) 97,83 %
27.06.2019 10:28 22,4 C 28,3 C 32,8 C 66 % 1028,1 hPa 0,0 l/m 2 min 0 min 720 W/m 6,4 km/h (2 Bft) 97,87 %
27.06.2019 10:30 22,4 C 28,3 C 31,1 C 64 % 1028,1 hPa 0,0 l/m 2 min 0 min 725 W/m 6,4 km/h (2 Bft) 97,87 %
27.06.2019 10:32 22,5 C 28,3 C 31,1 C 65 % 1028,1 hPa 0,0 l/m 2 min 0 min 727 W/m 9,7 km/h (2 Bft) 97,87 %
27.06.2019 10:34 22,5 C 28,9 C 30,6 C 64 % 1028,1 hPa 0,0 l/m 2 min 0 min 731 W/m 6,4 km/h (2 Bft) 97,87 %
27.06.2019 10:36 22,6 C 30,0 C 31,1 C 66 % 1028,1 hPa 0,0 l/m 2 min 0 min 740 W/m 6,4 km/h (2 Bft) 95,65 %
27.06.2019 10:38 22,7 C 30,0 C 31,1 C 65 % 1028,1 hPa 0,0 l/m 2 min 0 min 743 W/m 6,4 km/h (2 Bft) 97,87 %
27.06.2019 10:40 22,8 C 30,0 C 32,2 C 64 % 1028,1 hPa 0,0 l/m 2 min 0 min 750 W/m 9,7 km/h (2 Bft) 95,74 %
27.06.2019 10:42 22,9 C 30,0 C 32,8 C 65 % 1028,0 hPa 0,0 l/m 2 min 0 min 758 W/m 12,9 km/h (3 Bft) 95,74 %
27.06.2019 10:44 22,8 C 29,4 C 31,1 C 65 % 1028,0 hPa 0,0 l/m 2 min 0 min 762 W/m 9,7 km/h (2 Bft) 97,87 %
27.06.2019 10:46 22,8 C 30,0 C 32,2 C 66 % 1028,0 hPa 0,0 l/m 2 min 0 min 763 W/m 6,4 km/h (2 Bft) 97,87 %
27.06.2019 10:48 22,8 C 29,4 C 32,2 C 64 % 1028,0 hPa 0,0 l/m 2 min 0 min 765 W/m 12,9 km/h (3 Bft) 97,83 %
27.06.2019 10:50 22,9 C 30,0 C 32,2 C 64 % 1027,9 hPa 0,0 l/m 2 min 0 min 770 W/m 6,4 km/h (2 Bft) 97,87 %
27.06.2019 10:52 22,9 C 29,4 C 31,1 C 63 % 1028,0 hPa 0,0 l/m 2 min 0 min 773 W/m 16,1 km/h (3 Bft) 95,74 %
27.06.2019 10:54 23,0 C 29,4 C 31,7 C 65 % 1028,0 hPa 0,0 l/m 2 min 0 min 782 W/m 6,4 km/h (2 Bft) 95,74 %
27.06.2019 10:56 23,1 C 28,3 C 30,6 C 63 % 1028,0 hPa 0,0 l/m 2 min 0 min 791 W/m 9,7 km/h (2 Bft) 97,87 %
27.06.2019 10:58 23,1 C 28,9 C 31,7 C 63 % 1028,0 hPa 0,0 l/m 2 min 0 min 791 W/m 6,4 km/h (2 Bft) 95,74 %
27.06.2019 11:00 23,1 C 29,4 C 31,1 C 62 % 1027,9 hPa 0,0 l/m 2 min 0 min 795 W/m 16,1 km/h (3 Bft) 97,83 %
27.06.2019 11:02 23,1 C 30,6 C 32,2 C 64 % 1028,0 hPa 0,0 l/m 2 min 0 min 797 W/m 6,4 km/h (2 Bft) 97,87 %
27.06.2019 11:04 23,2 C 31,1 C 32,8 C 64 % 1027,9 hPa 0,0 l/m 2 min 0 min 803 W/m 6,4 km/h (2 Bft) 97,87 %
27.06.2019 11:06 23,3 C 30,6 C 32,8 C 62 % 1027,9 hPa 0,0 l/m 2 min 0 min 803 W/m 9,7 km/h (2 Bft) 97,87 %
27.06.2019 11:08 23,3 C 30,0 C 32,2 C 61 % 1028,0 hPa 0,0 l/m 2 min 0 min 813 W/m 9,7 km/h (2 Bft) 100,00 %
27.06.2019 11:10 23,3 C 31,1 C 31,7 C 61 % 1027,9 hPa 0,0 l/m 2 min 0 min 820 W/m 6,4 km/h (2 Bft) 97,87 %
27.06.2019 11:12 23,4 C 31,1 C 32,8 C 63 % 1028,0 hPa 0,0 l/m 2 min 0 min 824 W/m 6,4 km/h (2 Bft) 95,65 %
27.06.2019 11:14 23,6 C 31,7 C 33,3 C 62 % 1028,1 hPa 0,0 l/m 2 min 0 min 831 W/m 3,2 km/h (1 Bft) 100,00 %
27.06.2019 11:16 23,6 C 31,1 C 32,8 C 61 % 1027,9 hPa 0,0 l/m 2 min 0 min 830 W/m 9,7 km/h (2 Bft) 100,00 %
27.06.2019 11:18 23,5 C 31,1 C 31,7 C 59 % 1027,8 hPa 0,0 l/m 2 min 0 min 835 W/m 6,4 km/h (2 Bft) 100,00 %
27.06.2019 11:20 23,6 C 31,1 C 32,2 C 61 % 1027,9 hPa 0,0 l/m 2 min 0 min 838 W/m 9,7 km/h (2 Bft) 100,00 %
27.06.2019 11:22 23,6 C 31,1 C 33,3 C 61 % 1027,9 hPa 0,0 l/m 2 min 0 min 841 W/m 9,7 km/h (2 Bft) 100,00 %
27.06.2019 11:24 23,7 C 30,0 C 33,3 C 62 % 1027,9 hPa 0,0 l/m 2 min 0 min 843 W/m 6,4 km/h (2 Bft) 100,00 %
27.06.2019 11:26 23,8 C 30,6 C 33,3 C 61 % 1027,9 hPa 0,0 l/m 2 min 0 min 846 W/m 6,4 km/h (2 Bft) 97,87 %
27.06.2019 11:28 23,8 C 30,0 C 32,2 C 60 % 1027,9 hPa 0,0 l/m 2 min 0 min 847 W/m 12,9 km/h (3 Bft) 100,00 %
27.06.2019 11:30 23,8 C 30,6 C 33,3 C 62 % 1027,8 hPa 0,0 l/m 2 min 0 min 853 W/m 12,9 km/h (3 Bft) 100,00 %
27.06.2019 11:32 23,9 C 31,1 C 33,3 C 59 % 1027,7 hPa 0,0 l/m 2 min 0 min 857 W/m 9,7 km/h (2 Bft) 95,74 %
27.06.2019 11:34 23,9 C 31,1 C 32,8 C 60 % 1027,8 hPa 0,0 l/m 2 min 0 min 857 W/m 9,7 km/h (2 Bft) 97,87 %
27.06.2019 11:36 24,0 C 31,1 C 32,8 C 60 % 1027,7 hPa 0,0 l/m 2 min 0 min 862 W/m 12,9 km/h (3 Bft) 95,65 %
27.06.2019 11:38 24,1 C 31,1 C 32,8 C 60 % 1027,8 hPa 0,0 l/m 2 min 0 min 868 W/m 6,4 km/h (2 Bft) 97,87 %
27.06.2019 11:40 24,1 C 31,1 C 32,8 C 60 % 1027,8 hPa 0,0 l/m 2 min 0 min 874 W/m 9,7 km/h (2 Bft) 97,87 %
27.06.2019 11:42 24,2 C 32,2 C 33,9 C 62 % 1027,8 hPa 0,0 l/m 2 min 0 min 876 W/m 9,7 km/h (2 Bft) 97,87 %
27.06.2019 11:44 24,3 C 32,2 C 33,9 C 59 % 1027,8 hPa 0,0 l/m 2 min 0 min 877 W/m 9,7 km/h (2 Bft) 97,87 %
27.06.2019 11:46 24,4 C 31,7 C 34,4 C 59 % 1027,8 hPa 0,0 l/m 2 min 0 min 879 W/m 12,9 km/h (3 Bft) 95,65 %
27.06.2019 11:48 24,4 C 32,2 C 35,0 C 59 % 1027,7 hPa 0,0 l/m 2 min 0 min 883 W/m 6,4 km/h (2 Bft) 95,74 %
27.06.2019 11:50 24,5 C 32,2 C 34,4 C 58 % 1027,8 hPa 0,0 l/m 2 min 0 min 886 W/m 9,7 km/h (2 Bft) 95,74 %
27.06.2019 11:52 24,6 C 32,2 C 34,4 C 58 % 1027,8 hPa 0,0 l/m 2 min 0 min 891 W/m 6,4 km/h (2 Bft) 93,62 %
27.06.2019 11:54 24,6 C 31,1 C 33,3 C 57 % 1027,8 hPa 0,0 l/m 2 min 0 min 896 W/m 12,9 km/h (3 Bft) 95,74 %
27.06.2019 11:56 24,6 C 31,7 C 33,9 C 58 % 1027,7 hPa 0,0 l/m 2 min 0 min 896 W/m 9,7 km/h (2 Bft) 93,62 %
27.06.2019 11:58 24,6 C 31,1 C 33,9 C 58 % 1027,7 hPa 0,0 l/m 2 min 0 min 903 W/m 9,7 km/h (2 Bft) 95,65 %
27.06.2019 12:00 24,6 C 31,7 C 33,3 C 59 % 1027,8 hPa 0,0 l/m 2 min 0 min 903 W/m 6,4 km/h (2 Bft) 95,83 %
27.06.2019 12:02 24,7 C 31,7 C 33,9 C 58 % 1027,8 hPa 0,0 l/m 2 min 0 min 907 W/m 6,4 km/h (2 Bft) 93,22 %
27.06.2019 12:04 24,8 C 32,2 C 35,6 C 60 % 1027,8 hPa 0,0 l/m 2 min 0 min 912 W/m 6,4 km/h (2 Bft) 95,74 %
27.06.2019 12:08 24,7 C 29,4 C 32,2 C 54 % 1027,8 hPa 0,0 l/m 4 min 0 min 916 W/m 16,1 km/h (3 Bft) 95,70 %
27.06.2019 12:10 24,7 C 30,6 C 32,8 C 54 % 1027,7 hPa 0,0 l/m 2 min 0 min 919 W/m 6,4 km/h (2 Bft) 95,74 %
27.06.2019 12:12 24,6 C 30,0 C 32,2 C 53 % 1027,7 hPa 0,0 l/m 2 min 0 min 920 W/m 9,7 km/h (2 Bft) 95,74 %
27.06.2019 12:14 24,4 C 31,1 C 32,2 C 56 % 1027,7 hPa 0,0 l/m 2 min 0 min 923 W/m 6,4 km/h (2 Bft) 95,74 %
27.06.2019 12:16 24,6 C 32,8 C 33,9 C 57 % 1027,8 hPa 0,0 l/m 2 min 0 min 925 W/m 3,2 km/h (1 Bft) 95,74 %
27.06.2019 12:18 24,6 C 31,1 C 32,8 C 55 % 1027,7 hPa 0,0 l/m 2 min 0 min 929 W/m 6,4 km/h (2 Bft) 97,87 %
27.06.2019 12:20 24,7 C 32,2 C 35,0 C 58 % 1027,8 hPa 0,0 l/m 2 min 0 min 932 W/m 12,9 km/h (3 Bft) 95,65 %
27.06.2019 12:22 24,8 C 32,2 C 35,6 C 58 % 1027,7 hPa 0,0 l/m 2 min 0 min 932 W/m 6,4 km/h (2 Bft) 95,74 %
27.06.2019 12:24 24,8 C 32,2 C 33,9 C 53 % 1027,7 hPa 0,0 l/m 2 min 0 min 934 W/m 3,2 km/h (1 Bft) 95,74 %
27.06.2019 12:26 24,9 C 33,3 C 35,0 C 57 % 1027,8 hPa 0,0 l/m 2 min 0 min 942 W/m 6,4 km/h (2 Bft) 97,87 %
27.06.2019 12:28 25,1 C 32,8 C 36,1 C 55 % 1027,8 hPa 0,0 l/m 2 min 0 min 938 W/m 9,7 km/h (2 Bft) 97,87 %
27.06.2019 12:30 25,2 C 33,3 C 35,6 C 54 % 1027,8 hPa 0,0 l/m 2 min 0 min 942 W/m 9,7 km/h (2 Bft) 95,74 %
27.06.2019 12:32 25,3 C 32,8 C 35,6 C 56 % 1027,7 hPa 0,0 l/m 2 min 0 min 948 W/m 6,4 km/h (2 Bft) 97,83 %
27.06.2019 12:34 25,4 C 33,3 C 36,1 C 55 % 1027,7 hPa 0,0 l/m 2 min 0 min 943 W/m 6,4 km/h (2 Bft) 97,87 %
27.06.2019 12:36 25,5 C 33,3 C 36,1 C 54 % 1027,7 hPa 0,0 l/m 2 min 0 min 948 W/m 9,7 km/h (2 Bft) 97,87 %
27.06.2019 12:38 25,6 C 32,8 C 36,7 C 55 % 1027,7 hPa 0,0 l/m 2 min 0 min 950 W/m 12,9 km/h (3 Bft) 97,87 %
27.06.2019 12:40 25,7 C 32,2 C 35,6 C 52 % 1027,7 hPa 0,0 l/m 2 min 0 min 953 W/m 6,4 km/h (2 Bft) 95,74 %
27.06.2019 12:42 25,8 C 32,8 C 36,1 C 54 % 1027,7 hPa 0,0 l/m 2 min 0 min 955 W/m 9,7 km/h (2 Bft) 95,74 %
27.06.2019 12:44 25,8 C 33,3 C 36,1 C 53 % 1027,6 hPa 0,0 l/m 2 min 0 min 957 W/m 6,4 km/h (2 Bft) 100,00 %
27.06.2019 12:46 25,9 C 33,3 C 36,1 C 53 % 1027,6 hPa 0,0 l/m 2 min 0 min 958 W/m 6,4 km/h (2 Bft) 100,00 %
27.06.2019 12:48 25,9 C 32,2 C 35,0 C 51 % 1027,6 hPa 0,0 l/m 2 min 0 min 958 W/m 9,7 km/h (2 Bft) 100,00 %
27.06.2019 12:50 25,9 C 32,2 C 35,6 C 52 % 1027,6 hPa 0,0 l/m 2 min 0 min 960 W/m 12,9 km/h (3 Bft) 100,00 %
27.06.2019 12:52 25,9 C 31,7 C 33,9 C 49 % 1027,5 hPa 0,0 l/m 2 min 0 min 961 W/m 6,4 km/h (2 Bft) 100,00 %
27.06.2019 12:54 25,9 C 32,8 C 35,6 C 52 % 1027,6 hPa 0,0 l/m 2 min 0 min 964 W/m 9,7 km/h (2 Bft) 100,00 %
27.06.2019 12:56 25,9 C 32,2 C 35,6 C 50 % 1027,6 hPa 0,0 l/m 2 min 0 min 967 W/m 9,7 km/h (2 Bft) 100,00 %
27.06.2019 12:58 26,0 C 32,8 C 36,7 C 51 % 1027,6 hPa 0,0 l/m 2 min 0 min 968 W/m 9,7 km/h (2 Bft) 100,00 %
27.06.2019 13:00 26,1 C 32,2 C 35,6 C 49 % 1027,6 hPa 0,0 l/m 2 min 0 min 968 W/m 9,7 km/h (2 Bft) 100,00 %
27.06.2019 13:02 26,1 C 33,3 C 36,7 C 52 % 1027,6 hPa 0,0 l/m 2 min 0 min 967 W/m 6,4 km/h (2 Bft) 100,00 %
27.06.2019 13:04 26,2 C 33,9 C 37,2 C 54 % 1027,5 hPa 0,0 l/m 2 min 0 min 972 W/m 9,7 km/h (2 Bft) 97,87 %
27.06.2019 13:06 26,3 C 33,3 C 36,1 C 51 % 1027,5 hPa 0,0 l/m 2 min 0 min 972 W/m 9,7 km/h (2 Bft) 100,00 %
27.06.2019 13:08 26,4 C 32,8 C 36,1 C 49 % 1027,5 hPa 0,0 l/m 2 min 0 min 973 W/m 12,9 km/h (3 Bft) 100,00 %
27.06.2019 13:10 26,5 C 32,8 C 36,7 C 51 % 1027,5 hPa 0,0 l/m 2 min 0 min 973 W/m 6,4 km/h (2 Bft) 97,87 %
27.06.2019 13:12 26,6 C 33,3 C 37,2 C 52 % 1027,4 hPa 0,0 l/m 2 min 0 min 976 W/m 6,4 km/h (2 Bft) 100,00 %
27.06.2019 13:14 26,7 C 32,8 C 37,2 C 51 % 1027,3 hPa 0,0 l/m 2 min 0 min 974 W/m 9,7 km/h (2 Bft) 100,00 %
27.06.2019 13:16 26,7 C 33,3 C 37,8 C 51 % 1027,4 hPa 0,0 l/m 2 min 0 min 975 W/m 6,4 km/h (2 Bft) 100,00 %
27.06.2019 13:18 26,8 C 33,9 C 37,8 C 52 % 1027,3 hPa 0,0 l/m 2 min 0 min 975 W/m 9,7 km/h (2 Bft) 100,00 %
27.06.2019 13:20 26,9 C 32,8 C 36,7 C 50 % 1027,3 hPa 0,0 l/m 2 min 0 min 977 W/m 16,1 km/h (3 Bft) 100,00 %
27.06.2019 13:22 26,8 C 32,2 C 35,6 C 48 % 1027,3 hPa 0,0 l/m 2 min 0 min 979 W/m 9,7 km/h (2 Bft) 100,00 %
27.06.2019 13:24 26,9 C 32,8 C 36,1 C 48 % 1027,3 hPa 0,0 l/m 2 min 0 min 981 W/m 6,4 km/h (2 Bft) 100,00 %
27.06.2019 13:26 27,0 C 33,3 C 37,8 C 50 % 1027,3 hPa 0,0 l/m 2 min 0 min 978 W/m 9,7 km/h (2 Bft) 97,87 %
27.06.2019 13:28 27,1 C 33,3 C 37,8 C 50 % 1027,3 hPa 0,0 l/m 2 min 0 min 973 W/m 12,9 km/h (3 Bft) 97,87 %
27.06.2019 13:30 27,2 C 32,2 C 36,7 C 47 % 1027,3 hPa 0,0 l/m 2 min 0 min 980 W/m 12,9 km/h (3 Bft) 97,83 %
27.06.2019 13:32 27,2 C 31,7 C 36,1 C 45 % 1027,3 hPa 0,0 l/m 2 min 0 min 983 W/m 9,7 km/h (2 Bft) 100,00 %
27.06.2019 13:34 27,1 C 31,7 C 35,6 C 47 % 1027,4 hPa 0,0 l/m 2 min 0 min 987 W/m 16,1 km/h (3 Bft) 100,00 %
27.06.2019 13:36 27,2 C 32,2 C 36,7 C 49 % 1027,3 hPa 0,0 l/m 2 min 0 min 983 W/m 6,4 km/h (2 Bft) 97,87 %
27.06.2019 13:38 27,2 C 32,8 C 37,2 C 48 % 1027,3 hPa 0,0 l/m 2 min 0 min 983 W/m 6,4 km/h (2 Bft) 97,87 %
27.06.2019 13:40 27,3 C 33,3 C 37,2 C 50 % 1027,3 hPa 0,0 l/m 2 min 0 min 983 W/m 9,7 km/h (2 Bft) 100,00 %
27.06.2019 13:42 27,3 C 33,3 C 38,3 C 48 % 1027,3 hPa 0,0 l/m 2 min 0 min 984 W/m 6,4 km/h (2 Bft) 97,83 %
27.06.2019 13:44 27,5 C 33,9 C 37,8 C 49 % 1027,3 hPa 0,0 l/m 2 min 0 min 982 W/m 6,4 km/h (2 Bft) 97,87 %
27.06.2019 13:46 27,6 C 33,9 C 38,3 C 48 % 1027,3 hPa 0,0 l/m 2 min 0 min 984 W/m 6,4 km/h (2 Bft) 97,87 %
27.06.2019 13:48 27,7 C 32,8 C 38,3 C 47 % 1027,3 hPa 0,0 l/m 2 min 0 min 985 W/m 6,4 km/h (2 Bft) 95,74 %
27.06.2019 13:50 27,8 C 33,3 C 37,8 C 49 % 1027,3 hPa 0,0 l/m 2 min 0 min 986 W/m 6,4 km/h (2 Bft) 97,87 %
27.06.2019 13:52 27,8 C 32,8 C 37,8 C 48 % 1027,2 hPa 0,0 l/m 2 min 0 min 985 W/m 9,7 km/h (2 Bft) 97,87 %
27.06.2019 13:54 27,8 C 32,8 C 37,8 C 49 % 1027,3 hPa 0,0 l/m 2 min 0 min 983 W/m 16,1 km/h (3 Bft) 97,83 %
27.06.2019 13:56 27,8 C 32,2 C 37,8 C 47 % 1027,2 hPa 0,0 l/m 2 min 0 min 983 W/m 16,1 km/h (3 Bft) 97,87 %
27.06.2019 13:58 27,8 C 33,3 C 38,3 C 50 % 1027,2 hPa 0,0 l/m 2 min 0 min 984 W/m 6,4 km/h (2 Bft) 97,87 %
27.06.2019 14:00 27,8 C 32,8 C 37,8 C 48 % 1027,2 hPa 0,0 l/m 2 min 0 min 979 W/m 9,7 km/h (2 Bft) 97,87 %
27.06.2019 14:02 27,8 C 32,8 C 37,8 C 48 % 1027,2 hPa 0,0 l/m 2 min 0 min 983 W/m 9,7 km/h (2 Bft) 97,87 %
27.06.2019 14:04 27,9 C 33,3 C 37,2 C 48 % 1027,2 hPa 0,0 l/m 2 min 0 min 983 W/m 9,7 km/h (2 Bft) 95,74 %
27.06.2019 14:06 27,9 C 32,8 C 36,7 C 45 % 1027,1 hPa 0,0 l/m 2 min 0 min 984 W/m 9,7 km/h (2 Bft) 95,74 %
27.06.2019 14:08 28,0 C 33,3 C 37,8 C 48 % 1027,1 hPa 0,0 l/m 2 min 0 min 980 W/m 9,7 km/h (2 Bft) 95,65 %
27.06.2019 14:10 28,0 C 32,8 C 37,8 C 46 % 1027,1 hPa 0,0 l/m 2 min 0 min 980 W/m 9,7 km/h (2 Bft) 95,74 %
27.06.2019 14:12 28,1 C 32,8 C 36,7 C 47 % 1027,2 hPa 0,0 l/m 2 min 0 min 978 W/m 9,7 km/h (2 Bft) 95,74 %
27.06.2019 14:14 27,9 C 31,7 C 35,6 C 43 % 1027,2 hPa 0,0 l/m 2 min 0 min 978 W/m 16,1 km/h (3 Bft) 97,87 %
27.06.2019 14:16 27,8 C 31,7 C 36,7 C 48 % 1027,2 hPa 0,0 l/m 2 min 0 min 977 W/m 9,7 km/h (2 Bft) 93,48 %
27.06.2019 14:18 27,8 C 32,2 C 37,2 C 47 % 1027,1 hPa 0,0 l/m 2 min 0 min 976 W/m 12,9 km/h (3 Bft) 93,62 %
27.06.2019 14:20 27,8 C 32,8 C 37,2 C 50 % 1027,0 hPa 0,0 l/m 2 min 0 min 973 W/m 9,7 km/h (2 Bft) 95,74 %
27.06.2019 14:22 27,9 C 32,8 C 37,2 C 47 % 1027,0 hPa 0,0 l/m 2 min 0 min 971 W/m 16,1 km/h (3 Bft) 95,74 %
27.06.2019 14:24 28,0 C 32,8 C 37,2 C 48 % 1027,0 hPa 0,0 l/m 2 min 0 min 970 W/m 6,4 km/h (2 Bft) 95,74 %
27.06.2019 14:26 28,0 C 32,2 C 36,7 C 45 % 1027,0 hPa 0,0 l/m 2 min 0 min 970 W/m 16,1 km/h (3 Bft) 95,74 %
27.06.2019 14:28 28,1 C 32,8 C 37,2 C 47 % 1026,9 hPa 0,0 l/m 2 min 0 min 968 W/m 9,7 km/h (2 Bft) 95,65 %
27.06.2019 14:30 28,2 C 33,3 C 37,2 C 48 % 1026,9 hPa 0,0 l/m 2 min 0 min 969 W/m 9,7 km/h (2 Bft) 97,87 %
27.06.2019 14:32 28,2 C 32,8 C 36,7 C 46 % 1026,9 hPa 0,0 l/m 2 min 0 min 969 W/m 16,1 km/h (3 Bft) 97,87 %
27.06.2019 14:34 28,2 C 32,8 C 36,7 C 47 % 1026,8 hPa 0,0 l/m 2 min 0 min 965 W/m 6,4 km/h (2 Bft) 95,74 %
27.06.2019 14:36 28,3 C 33,3 C 37,2 C 49 % 1026,9 hPa 0,0 l/m 2 min 0 min 966 W/m 12,9 km/h (3 Bft) 95,74 %
27.06.2019 14:38 28,3 C 32,8 C 37,8 C 47 % 1026,9 hPa 0,0 l/m 2 min 0 min 962 W/m 12,9 km/h (3 Bft) 97,87 %
27.06.2019 14:40 28,4 C 33,3 C 37,2 C 47 % 1026,9 hPa 0,0 l/m 2 min 0 min 958 W/m 6,4 km/h (2 Bft) 97,83 %
27.06.2019 14:42 28,4 C 33,3 C 36,7 C 46 % 1026,8 hPa 0,0 l/m 2 min 0 min 959 W/m 9,7 km/h (2 Bft) 97,87 %
27.06.2019 14:44 28,5 C 32,8 C 35,6 C 46 % 1026,7 hPa 0,0 l/m 2 min 0 min 957 W/m 16,1 km/h (3 Bft) 97,87 %
27.06.2019 14:46 28,5 C 32,2 C 35,0 C 47 % 1026,8 hPa 0,0 l/m 2 min 0 min 953 W/m 16,1 km/h (3 Bft) 97,87 %
27.06.2019 14:48 28,6 C 32,8 C 35,6 C 47 % 1026,8 hPa 0,0 l/m 2 min 0 min 952 W/m 9,7 km/h (2 Bft) 95,74 %
27.06.2019 14:50 28,6 C 32,8 C 35,6 C 47 % 1026,8 hPa 0,0 l/m 2 min 0 min 951 W/m 6,4 km/h (2 Bft) 97,87 %
27.06.2019 14:52 28,7 C 32,8 C 35,0 C 48 % 1026,8 hPa 0,0 l/m 2 min 0 min 950 W/m 6,4 km/h (2 Bft) 97,83 %
27.06.2019 14:54 28,8 C 33,3 C 35,6 C 48 % 1026,8 hPa 0,0 l/m 2 min 0 min 947 W/m 6,4 km/h (2 Bft) 100,00 %
27.06.2019 14:56 28,9 C 33,3 C 35,0 C 47 % 1026,7 hPa 0,0 l/m 2 min 0 min 948 W/m 9,7 km/h (2 Bft) 100,00 %
27.06.2019 14:58 28,9 C 32,8 C 32,2 C 47 % 1026,7 hPa 0,0 l/m 2 min 0 min 945 W/m 9,7 km/h (2 Bft) 100,00 %
27.06.2019 15:00 29,0 C 33,3 C 30,6 C 47 % 1026,8 hPa 0,0 l/m 2 min 0 min 946 W/m 9,7 km/h (2 Bft) 100,00 %
27.06.2019 15:02 29,0 C 32,2 C 29,4 C 46 % 1026,6 hPa 0,0 l/m 2 min 0 min 943 W/m 6,4 km/h (2 Bft) 97,87 %
27.06.2019 15:04 29,0 C 33,3 C 28,9 C 46 % 1026,7 hPa 0,0 l/m 2 min 0 min 937 W/m 3,2 km/h (1 Bft) 100,00 %
27.06.2019 15:06 29,1 C 32,8 C 28,9 C 48 % 1026,7 hPa 0,0 l/m 2 min 0 min 939 W/m 9,7 km/h (2 Bft) 100,00 %
27.06.2019 15:08 29,0 C 31,7 C 28,9 C 44 % 1026,7 hPa 0,0 l/m 2 min 0 min 935 W/m 19,3 km/h (3 Bft) 100,00 %
27.06.2019 15:10 28,9 C 31,7 C 28,3 C 43 % 1026,7 hPa 0,0 l/m 2 min 0 min 931 W/m 6,4 km/h (2 Bft) 97,87 %
27.06.2019 15:12 28,9 C 32,2 C 28,9 C 44 % 1026,6 hPa 0,0 l/m 2 min 0 min 930 W/m 16,1 km/h (3 Bft) 100,00 %
27.06.2019 15:14 28,9 C 32,2 C 29,4 C 46 % 1026,6 hPa 0,0 l/m 2 min 0 min 927 W/m 12,9 km/h (3 Bft) 100,00 %
27.06.2019 15:16 28,9 C 32,2 C 28,9 C 46 % 1026,6 hPa 0,0 l/m 2 min 0 min 924 W/m 19,3 km/h (3 Bft) 95,74 %
27.06.2019 15:18 29,0 C 31,7 C 28,9 C 46 % 1026,5 hPa 0,0 l/m 2 min 0 min 920 W/m 12,9 km/h (3 Bft) 97,87 %
27.06.2019 15:20 29,0 C 32,2 C 28,9 C 47 % 1026,5 hPa 0,0 l/m 2 min 0 min 920 W/m 6,4 km/h (2 Bft) 97,87 %
27.06.2019 15:22 29,1 C 32,2 C 28,9 C 44 % 1026,5 hPa 0,0 l/m 2 min 0 min 915 W/m 9,7 km/h (2 Bft) 97,87 %
27.06.2019 15:24 29,1 C 32,2 C 28,9 C 46 % 1026,5 hPa 0,0 l/m 2 min 0 min 913 W/m 9,7 km/h (2 Bft) 97,87 %
27.06.2019 15:26 29,1 C 32,2 C 28,9 C 46 % 1026,5 hPa 0,0 l/m 2 min 0 min 912 W/m 9,7 km/h (2 Bft) 97,83 %
27.06.2019 15:28 29,2 C 32,2 C 28,9 C 46 % 1026,4 hPa 0,0 l/m 2 min 0 min 907 W/m 6,4 km/h (2 Bft) 97,87 %
27.06.2019 15:30 29,2 C 31,1 C 28,9 C 44 % 1026,4 hPa 0,0 l/m 2 min 0 min 906 W/m 16,1 km/h (3 Bft) 97,87 %
27.06.2019 15:32 29,2 C 31,1 C 28,3 C 44 % 1026,4 hPa 0,0 l/m 2 min 0 min 902 W/m 6,4 km/h (2 Bft) 98,11 %
27.06.2019 15:34 29,2 C 31,1 C 28,3 C 45 % 1026,4 hPa 0,0 l/m 2 min 0 min 898 W/m 16,1 km/h (3 Bft) 97,87 %
27.06.2019 15:36 29,2 C 31,1 C 28,3 C 44 % 1026,4 hPa 0,0 l/m 2 min 0 min 894 W/m 9,7 km/h (2 Bft) 95,74 %
27.06.2019 15:38 29,2 C 31,1 C 28,3 C 45 % 1026,4 hPa 0,0 l/m 2 min 0 min 894 W/m 9,7 km/h (2 Bft) 97,87 %
27.06.2019 15:40 29,2 C 31,1 C 28,3 C 44 % 1026,3 hPa 0,0 l/m 2 min 0 min 887 W/m 6,4 km/h (2 Bft) 93,48 %
27.06.2019 15:42 29,1 C 31,1 C 28,3 C 44 % 1026,3 hPa 0,0 l/m 2 min 0 min 886 W/m 9,7 km/h (2 Bft) 97,87 %
27.06.2019 15:44 29,1 C 31,1 C 28,3 C 45 % 1026,3 hPa 0,0 l/m 2 min 0 min 883 W/m 12,9 km/h (3 Bft) 95,74 %
27.06.2019 15:46 29,1 C 30,6 C 28,3 C 45 % 1026,3 hPa 0,0 l/m 2 min 0 min 880 W/m 9,7 km/h (2 Bft) 97,87 %
27.06.2019 15:48 29,1 C 30,0 C 28,3 C 42 % 1026,2 hPa 0,0 l/m 2 min 0 min 873 W/m 9,7 km/h (2 Bft) 95,74 %
27.06.2019 15:50 29,1 C 30,0 C 28,9 C 45 % 1026,2 hPa 0,0 l/m 2 min 0 min 871 W/m 9,7 km/h (2 Bft) 97,87 %
27.06.2019 15:52 29,1 C 30,0 C 28,3 C 44 % 1026,2 hPa 0,0 l/m 2 min 0 min 872 W/m 9,7 km/h (2 Bft) 97,83 %
27.06.2019 15:54 29,1 C 30,0 C 28,3 C 43 % 1026,2 hPa 0,0 l/m 2 min 0 min 867 W/m 9,7 km/h (2 Bft) 97,87 %
27.06.2019 15:56 29,1 C 30,6 C 28,3 C 45 % 1026,2 hPa 0,0 l/m 2 min 0 min 865 W/m 6,4 km/h (2 Bft) 97,87 %
27.06.2019 15:58 29,1 C 30,0 C 28,3 C 43 % 1026,2 hPa 0,0 l/m 2 min 0 min 860 W/m 9,7 km/h (2 Bft) 97,87 %
27.06.2019 16:00 29,2 C 30,6 C 28,3 C 45 % 1026,2 hPa 0,0 l/m 2 min 0 min 855 W/m 6,4 km/h (2 Bft) 97,87 %
27.06.2019 16:02 29,2 C 30,0 C 27,8 C 45 % 1026,1 hPa 0,0 l/m 2 min 0 min 850 W/m 9,7 km/h (2 Bft) 95,83 %
27.06.2019 16:04 29,2 C 29,4 C 28,3 C 44 % 1026,2 hPa 0,0 l/m 2 min 0 min 846 W/m 12,9 km/h (3 Bft) 97,83 %
27.06.2019 16:06 29,2 C 29,4 C 28,3 C 43 % 1026,1 hPa 0,0 l/m 2 min 0 min 843 W/m 12,9 km/h (3 Bft) 97,87 %
27.06.2019 16:08 29,1 C 29,4 C 28,3 C 44 % 1026,2 hPa 0,0 l/m 2 min 0 min 840 W/m 12,9 km/h (3 Bft) 95,74 %
27.06.2019 16:10 29,2 C 29,4 C 28,3 C 44 % 1026,2 hPa 0,0 l/m 2 min 0 min 839 W/m 16,1 km/h (3 Bft) 97,87 %
27.06.2019 16:12 29,3 C 29,4 C 28,3 C 46 % 1026,1 hPa 0,0 l/m 2 min 0 min 835 W/m 12,9 km/h (3 Bft) 93,62 %
27.06.2019 16:14 29,3 C 29,4 C 28,3 C 46 % 1026,0 hPa 0,0 l/m 2 min 0 min 830 W/m 9,7 km/h (2 Bft) 95,74 %
27.06.2019 16:16 29,3 C 28,9 C 28,3 C 43 % 1026,1 hPa 0,0 l/m 2 min 0 min 825 W/m 9,7 km/h (2 Bft) 97,83 %
27.06.2019 16:18 29,3 C 28,9 C 28,3 C 45 % 1026,0 hPa 0,0 l/m 2 min 0 min 816 W/m 12,9 km/h (3 Bft) 97,87 %
27.06.2019 16:20 29,3 C 28,9 C 28,3 C 45 % 1026,1 hPa 0,0 l/m 2 min 0 min 816 W/m 6,4 km/h (2 Bft) 97,87 %
27.06.2019 16:22 29,3 C 28,3 C 28,3 C 46 % 1025,9 hPa 0,0 l/m 2 min 0 min 811 W/m 6,4 km/h (2 Bft) 97,87 %
27.06.2019 16:24 29,3 C 28,3 C 28,3 C 45 % 1025,9 hPa 0,0 l/m 2 min 0 min 806 W/m 16,1 km/h (3 Bft) 95,74 %
27.06.2019 16:26 29,4 C 28,3 C 28,9 C 46 % 1025,9 hPa 0,0 l/m 2 min 0 min 801 W/m 9,7 km/h (2 Bft) 95,74 %
27.06.2019 16:28 29,3 C 27,8 C 28,9 C 44 % 1025,8 hPa 0,0 l/m 2 min 0 min 797 W/m 12,9 km/h (3 Bft) 93,48 %
27.06.2019 16:30 29,3 C 27,8 C 28,9 C 43 % 1025,9 hPa 0,0 l/m 2 min 0 min 796 W/m 9,7 km/h (2 Bft) 97,87 %
27.06.2019 16:32 29,3 C 28,3 C 30,6 C 47 % 1025,9 hPa 0,0 l/m 2 min 0 min 789 W/m 9,7 km/h (2 Bft) 97,87 %
27.06.2019 16:34 29,3 C 28,3 C 30,6 C 44 % 1025,9 hPa 0,0 l/m 2 min 0 min 785 W/m 16,1 km/h (3 Bft) 97,87 %
27.06.2019 16:36 29,3 C 28,3 C 30,0 C 44 % 1025,9 hPa 0,0 l/m 2 min 0 min 779 W/m 9,7 km/h (2 Bft) 93,62 %
27.06.2019 16:38 29,3 C 27,8 C 30,0 C 46 % 1026,0 hPa 0,0 l/m 2 min 0 min 777 W/m 6,4 km/h (2 Bft) 97,87 %
27.06.2019 16:40 29,3 C 27,8 C 30,0 C 45 % 1026,0 hPa 0,0 l/m 2 min 0 min 771 W/m 16,1 km/h (3 Bft) 97,83 %
27.06.2019 16:42 29,3 C 28,3 C 30,0 C 44 % 1026,0 hPa 0,0 l/m 2 min 0 min 764 W/m 6,4 km/h (2 Bft) 97,87 %
27.06.2019 16:44 29,3 C 28,3 C 29,4 C 46 % 1026,0 hPa 0,0 l/m 2 min 0 min 759 W/m 6,4 km/h (2 Bft) 97,87 %
27.06.2019 16:46 29,4 C 28,3 C 28,9 C 46 % 1026,0 hPa 0,0 l/m 2 min 0 min 755 W/m 16,1 km/h (3 Bft) 95,74 %
27.06.2019 16:48 29,4 C 27,8 C 28,3 C 44 % 1026,0 hPa 0,0 l/m 2 min 0 min 751 W/m 16,1 km/h (3 Bft) 97,87 %
27.06.2019 16:50 29,3 C 27,8 C 28,3 C 45 % 1026,0 hPa 0,0 l/m 2 min 0 min 748 W/m 6,4 km/h (2 Bft) 97,83 %
27.06.2019 16:52 29,3 C 27,8 C 28,3 C 46 % 1025,9 hPa 0,0 l/m 2 min 0 min 742 W/m 9,7 km/h (2 Bft) 97,87 %
27.06.2019 16:54 29,2 C 27,8 C 27,8 C 45 % 1025,9 hPa 0,0 l/m 2 min 0 min 735 W/m 16,1 km/h (3 Bft) 97,87 %
27.06.2019 16:56 29,3 C 28,3 C 28,3 C 46 % 1026,0 hPa 0,0 l/m 2 min 0 min 729 W/m 12,9 km/h (3 Bft) 95,74 %
27.06.2019 16:58 29,3 C 28,3 C 28,3 C 46 % 1026,0 hPa 0,0 l/m 2 min 0 min 726 W/m 6,4 km/h (2 Bft) 93,62 %
27.06.2019 17:00 29,3 C 27,8 C 28,3 C 44 % 1026,0 hPa 0,0 l/m 2 min 0 min 721 W/m 9,7 km/h (2 Bft) 93,62 %
27.06.2019 17:02 29,3 C 27,8 C 28,3 C 46 % 1025,9 hPa 0,0 l/m 2 min 0 min 714 W/m 6,4 km/h (2 Bft) 95,65 %
27.06.2019 17:04 29,3 C 28,3 C 28,3 C 46 % 1026,0 hPa 0,0 l/m 2 min 0 min 713 W/m 6,4 km/h (2 Bft) 97,87 %
27.06.2019 17:06 29,3 C 28,3 C 28,3 C 45 % 1026,0 hPa 0,0 l/m 2 min 0 min 708 W/m 9,7 km/h (2 Bft) 93,62 %
27.06.2019 17:08 29,3 C 27,8 C 28,3 C 43 % 1025,9 hPa 0,0 l/m 2 min 0 min 706 W/m 9,7 km/h (2 Bft) 97,87 %
27.06.2019 17:10 29,3 C 27,8 C 27,8 C 44 % 1025,9 hPa 0,0 l/m 2 min 0 min 699 W/m 9,7 km/h (2 Bft) 97,87 %
27.06.2019 17:12 29,3 C 28,3 C 27,8 C 45 % 1025,9 hPa 0,0 l/m 2 min 0 min 693 W/m 9,7 km/h (2 Bft) 97,87 %
27.06.2019 17:14 29,3 C 28,3 C 27,8 C 43 % 1025,9 hPa 0,0 l/m 2 min 0 min 690 W/m 9,7 km/h (2 Bft) 95,65 %
27.06.2019 17:16 29,3 C 28,3 C 28,3 C 46 % 1025,9 hPa 0,0 l/m 2 min 0 min 682 W/m 6,4 km/h (2 Bft) 100,00 %
27.06.2019 17:18 29,3 C 28,3 C 28,9 C 46 % 1026,0 hPa 0,0 l/m 2 min 0 min 676 W/m 6,4 km/h (2 Bft) 97,87 %
27.06.2019 17:20 29,3 C 28,3 C 28,9 C 45 % 1025,9 hPa 0,0 l/m 2 min 0 min 670 W/m 12,9 km/h (3 Bft) 97,87 %
27.06.2019 17:22 29,3 C 27,8 C 28,3 C 45 % 1025,9 hPa 0,0 l/m 2 min 0 min 666 W/m 19,3 km/h (3 Bft) 97,87 %
27.06.2019 17:24 29,2 C 27,8 C 28,3 C 46 % 1025,9 hPa 0,0 l/m 2 min 0 min 659 W/m 9,7 km/h (2 Bft) 95,74 %
27.06.2019 17:26 29,2 C 27,8 C 27,8 C 46 % 1025,8 hPa 0,0 l/m 2 min 0 min 652 W/m 6,4 km/h (2 Bft) 97,83 %
27.06.2019 17:28 29,2 C 28,3 C 27,8 C 46 % 1025,9 hPa 0,0 l/m 2 min 0 min 647 W/m 6,4 km/h (2 Bft) 97,87 %
27.06.2019 17:30 29,3 C 28,3 C 27,8 C 45 % 1025,8 hPa 0,0 l/m 2 min 0 min 642 W/m 6,4 km/h (2 Bft) 97,87 %
27.06.2019 17:32 29,3 C 28,3 C 27,8 C 46 % 1025,8 hPa 0,0 l/m 2 min 0 min 636 W/m 12,9 km/h (3 Bft) 97,87 %
27.06.2019 17:34 29,2 C 27,8 C 27,8 C 44 % 1025,8 hPa 0,0 l/m 2 min 0 min 631 W/m 12,9 km/h (3 Bft) 97,87 %
27.06.2019 17:36 29,2 C 27,8 C 27,8 C 47 % 1025,8 hPa 0,0 l/m 2 min 0 min 627 W/m 12,9 km/h (3 Bft) 97,87 %
27.06.2019 17:38 29,2 C 28,3 C 27,8 C 47 % 1025,9 hPa 0,0 l/m 2 min 0 min 621 W/m 9,7 km/h (2 Bft) 97,83 %
27.06.2019 17:40 29,2 C 28,3 C 27,8 C 46 % 1025,8 hPa 0,0 l/m 2 min 0 min 618 W/m 9,7 km/h (2 Bft) 100,00 %
27.06.2019 17:42 29,2 C 28,3 C 27,8 C 46 % 1025,7 hPa 0,0 l/m 2 min 0 min 611 W/m 6,4 km/h (2 Bft) 100,00 %
27.06.2019 17:44 29,2 C 27,8 C 27,2 C 46 % 1025,7 hPa 0,0 l/m 2 min 0 min 604 W/m 12,9 km/h (3 Bft) 100,00 %
27.06.2019 17:46 29,2 C 28,3 C 27,2 C 45 % 1025,7 hPa 0,0 l/m 2 min 0 min 597 W/m 6,4 km/h (2 Bft) 100,00 %
27.06.2019 17:48 29,2 C 28,3 C 27,2 C 49 % 1025,7 hPa 0,0 l/m 2 min 0 min 593 W/m 9,7 km/h (2 Bft) 100,00 %
27.06.2019 17:50 29,2 C 27,8 C 27,2 C 46 % 1025,7 hPa 0,0 l/m 2 min 0 min 588 W/m 12,9 km/h (3 Bft) 100,00 %
27.06.2019 17:52 29,2 C 27,8 C 27,2 C 47 % 1025,7 hPa 0,0 l/m 2 min 0 min 583 W/m 6,4 km/h (2 Bft) 100,00 %
27.06.2019 17:54 29,3 C 28,3 C 27,2 C 47 % 1025,7 hPa 0,0 l/m 2 min 0 min 577 W/m 6,4 km/h (2 Bft) 100,00 %
27.06.2019 17:56 29,2 C 27,8 C 27,2 C 47 % 1025,7 hPa 0,0 l/m 2 min 0 min 570 W/m 12,9 km/h (3 Bft) 100,00 %
27.06.2019 17:58 29,2 C 27,8 C 27,2 C 46 % 1025,7 hPa 0,0 l/m 2 min 0 min 566 W/m 19,3 km/h (3 Bft) 97,87 %
27.06.2019 18:00 29,2 C 27,2 C 27,2 C 45 % 1025,7 hPa 0,0 l/m 2 min 0 min 561 W/m 9,7 km/h (2 Bft) 100,00 %
27.06.2019 18:02 29,1 C 27,2 C 27,2 C 45 % 1025,6 hPa 0,0 l/m 2 min 0 min 555 W/m 9,7 km/h (2 Bft) 100,00 %
27.06.2019 18:04 29,0 C 27,2 C 28,3 C 45 % 1025,6 hPa 0,0 l/m 2 min 0 min 550 W/m 12,9 km/h (3 Bft) 100,00 %
27.06.2019 18:08 28,9 C 27,8 C 29,4 C 48 % 1025,6 hPa 0,0 l/m 4 min 0 min 539 W/m 9,7 km/h (2 Bft) 100,00 %
27.06.2019 18:10 28,9 C 27,8 C 29,4 C 48 % 1025,6 hPa 0,0 l/m 2 min 0 min 530 W/m 6,4 km/h (2 Bft) 100,00 %
27.06.2019 18:12 28,8 C 27,8 C 28,3 C 46 % 1025,6 hPa 0,0 l/m 2 min 0 min 525 W/m 6,4 km/h (2 Bft) 100,00 %
27.06.2019 18:14 28,8 C 27,8 C 27,8 C 46 % 1025,6 hPa 0,0 l/m 2 min 0 min 519 W/m 9,7 km/h (2 Bft) 100,00 %
27.06.2019 18:16 28,8 C 27,8 C 27,2 C 47 % 1025,6 hPa 0,0 l/m 2 min 0 min 513 W/m 9,7 km/h (2 Bft) 100,00 %
27.06.2019 18:18 28,7 C 27,2 C 26,7 C 47 % 1025,6 hPa 0,0 l/m 2 min 0 min 509 W/m 6,4 km/h (2 Bft) 100,00 %
27.06.2019 18:20 28,7 C 27,2 C 26,7 C 48 % 1025,7 hPa 0,0 l/m 2 min 0 min 504 W/m 9,7 km/h (2 Bft) 100,00 %
27.06.2019 18:22 28,6 C 27,2 C 26,7 C 47 % 1025,6 hPa 0,0 l/m 2 min 0 min 496 W/m 16,1 km/h (3 Bft) 100,00 %
27.06.2019 18:24 28,6 C 27,2 C 26,7 C 47 % 1025,6 hPa 0,0 l/m 2 min 0 min 488 W/m 12,9 km/h (3 Bft) 100,00 %
27.06.2019 18:26 28,6 C 27,2 C 26,7 C 47 % 1025,6 hPa 0,0 l/m 2 min 0 min 483 W/m 9,7 km/h (2 Bft) 100,00 %
27.06.2019 18:28 28,5 C 27,2 C 26,1 C 48 % 1025,5 hPa 0,0 l/m 2 min 0 min 481 W/m 19,3 km/h (3 Bft) 100,00 %
27.06.2019 18:30 28,4 C 26,7 C 26,1 C 47 % 1025,5 hPa 0,0 l/m 2 min 0 min 472 W/m 19,3 km/h (3 Bft) 100,00 %
27.06.2019 18:32 28,4 C 27,2 C 26,1 C 49 % 1025,5 hPa 0,0 l/m 2 min 0 min 464 W/m 9,7 km/h (2 Bft) 97,87 %
27.06.2019 18:34 28,3 C 27,2 C 26,1 C 48 % 1025,4 hPa 0,0 l/m 2 min 0 min 458 W/m 9,7 km/h (2 Bft) 100,00 %
27.06.2019 18:36 28,3 C 27,2 C 26,1 C 47 % 1025,5 hPa 0,0 l/m 2 min 0 min 453 W/m 12,9 km/h (3 Bft) 100,00 %
27.06.2019 18:38 28,2 C 27,2 C 26,1 C 48 % 1025,5 hPa 0,0 l/m 2 min 0 min 448 W/m 9,7 km/h (2 Bft) 97,87 %
27.06.2019 18:40 28,2 C 27,2 C 25,6 C 48 % 1025,4 hPa 0,0 l/m 2 min 0 min 442 W/m 22,5 km/h (4 Bft) 95,74 %
27.06.2019 18:42 28,2 C 27,2 C 25,6 C 48 % 1025,4 hPa 0,0 l/m 2 min 0 min 434 W/m 12,9 km/h (3 Bft) 100,00 %
27.06.2019 18:44 28,1 C 27,2 C 25,6 C 48 % 1025,4 hPa 0,0 l/m 2 min 0 min 430 W/m 9,7 km/h (2 Bft) 95,74 %
27.06.2019 18:46 28,1 C 27,2 C 25,6 C 48 % 1025,4 hPa 0,0 l/m 2 min 0 min 424 W/m 6,4 km/h (2 Bft) 100,00 %
27.06.2019 18:48 28,1 C 27,2 C 25,6 C 49 % 1025,4 hPa 0,0 l/m 2 min 0 min 418 W/m 6,4 km/h (2 Bft) 97,87 %
27.06.2019 18:50 28,0 C 27,2 C 25,6 C 48 % 1025,4 hPa 0,0 l/m 2 min 0 min 411 W/m 9,7 km/h (2 Bft) 97,87 %
27.06.2019 18:52 27,9 C 26,7 C 25,6 C 48 % 1025,5 hPa 0,0 l/m 2 min 0 min 404 W/m 9,7 km/h (2 Bft) 100,00 %
27.06.2019 18:54 27,9 C 26,7 C 25,6 C 48 % 1025,4 hPa 0,0 l/m 2 min 0 min 399 W/m 12,9 km/h (3 Bft) 100,00 %
27.06.2019 18:56 27,8 C 26,1 C 25,0 C 47 % 1025,4 hPa 0,0 l/m 2 min 0 min 393 W/m 12,9 km/h (3 Bft) 97,87 %
27.06.2019 18:58 27,7 C 26,7 C 25,6 C 49 % 1025,4 hPa 0,0 l/m 2 min 0 min 386 W/m 9,7 km/h (2 Bft) 97,87 %
27.06.2019 19:00 27,7 C 26,1 C 25,0 C 49 % 1025,4 hPa 0,0 l/m 2 min 0 min 380 W/m 6,4 km/h (2 Bft) 97,87 %
27.06.2019 19:02 27,6 C 26,1 C 25,0 C 48 % 1025,4 hPa 0,0 l/m 2 min 0 min 374 W/m 9,7 km/h (2 Bft) 95,74 %
27.06.2019 19:04 27,6 C 26,1 C 25,0 C 49 % 1025,3 hPa 0,0 l/m 2 min 0 min 369 W/m 9,7 km/h (2 Bft) 97,83 %
27.06.2019 19:06 27,6 C 26,1 C 25,0 C 51 % 1025,4 hPa 0,0 l/m 2 min 0 min 362 W/m 6,4 km/h (2 Bft) 97,87 %
27.06.2019 19:08 27,5 C 26,1 C 25,0 C 49 % 1025,4 hPa 0,0 l/m 2 min 0 min 355 W/m 9,7 km/h (2 Bft) 97,87 %
27.06.2019 19:10 27,4 C 26,1 C 24,4 C 50 % 1025,4 hPa 0,0 l/m 2 min 0 min 349 W/m 9,7 km/h (2 Bft) 97,87 %
27.06.2019 19:12 27,4 C 26,1 C 24,4 C 50 % 1025,4 hPa 0,0 l/m 2 min 0 min 342 W/m 9,7 km/h (2 Bft) 93,62 %
27.06.2019 19:14 27,4 C 26,1 C 24,4 C 50 % 1025,4 hPa 0,0 l/m 2 min 0 min 336 W/m 16,1 km/h (3 Bft) 97,87 %
27.06.2019 19:16 27,3 C 26,1 C 24,4 C 51 % 1025,4 hPa 0,0 l/m 2 min 0 min 329 W/m 9,7 km/h (2 Bft) 97,83 %
27.06.2019 19:18 27,2 C 25,6 C 24,4 C 50 % 1025,4 hPa 0,0 l/m 2 min 0 min 323 W/m 9,7 km/h (2 Bft) 100,00 %
27.06.2019 19:20 27,1 C 25,6 C 23,9 C 51 % 1025,4 hPa 0,0 l/m 2 min 0 min 318 W/m 9,7 km/h (2 Bft) 97,87 %
27.06.2019 19:22 27,1 C 26,1 C 23,9 C 52 % 1025,4 hPa 0,0 l/m 2 min 0 min 311 W/m 6,4 km/h (2 Bft) 97,87 %
27.06.2019 19:24 27,0 C 25,6 C 23,9 C 52 % 1025,4 hPa 0,0 l/m 2 min 0 min 304 W/m 6,4 km/h (2 Bft) 91,49 %
27.06.2019 19:26 26,9 C 25,6 C 23,9 C 52 % 1025,5 hPa 0,0 l/m 2 min 0 min 299 W/m 6,4 km/h (2 Bft) 91,49 %
27.06.2019 19:28 26,8 C 25,6 C 23,9 C 52 % 1025,4 hPa 0,0 l/m 2 min 0 min 294 W/m 6,4 km/h (2 Bft) 93,48 %
27.06.2019 19:30 26,7 C 25,6 C 23,9 C 52 % 1025,5 hPa 0,0 l/m 2 min 0 min 288 W/m 6,4 km/h (2 Bft) 93,62 %
27.06.2019 19:32 26,7 C 25,6 C 23,9 C 53 % 1025,4 hPa 0,0 l/m 2 min 0 min 266 W/m 6,4 km/h (2 Bft) 91,43 %
27.06.2019 19:34 26,6 C 25,0 C 23,3 C 52 % 1025,5 hPa 0,0 l/m 0 min 0 min 118 W/m 6,4 km/h (2 Bft) 93,62 %
27.06.2019 19:36 26,5 C 25,0 C 23,3 C 52 % 1025,4 hPa 0,0 l/m 0 min 0 min 56 W/m 9,7 km/h (2 Bft) 91,49 %
27.06.2019 19:38 26,4 C 24,4 C 23,3 C 51 % 1025,4 hPa 0,0 l/m 0 min 0 min 59 W/m 19,3 km/h (3 Bft) 93,62 %
27.06.2019 19:40 26,3 C 24,4 C 23,3 C 52 % 1025,4 hPa 0,0 l/m 2 min 0 min 166 W/m 9,7 km/h (2 Bft) 93,62 %
27.06.2019 19:42 26,3 C 24,4 C 23,3 C 52 % 1025,4 hPa 0,0 l/m 2 min 0 min 248 W/m 16,1 km/h (3 Bft) 93,48 %
27.06.2019 19:44 26,2 C 24,4 C 23,3 C 52 % 1025,4 hPa 0,0 l/m 2 min 0 min 242 W/m 9,7 km/h (2 Bft) 91,49 %
27.06.2019 19:46 26,0 C 23,9 C 22,8 C 52 % 1025,4 hPa 0,0 l/m 2 min 0 min 234 W/m 12,9 km/h (3 Bft) 87,23 %
27.06.2019 19:48 25,9 C 23,9 C 22,8 C 52 % 1025,4 hPa 0,0 l/m 2 min 0 min 226 W/m 6,4 km/h (2 Bft) 93,62 %
27.06.2019 19:50 25,8 C 23,9 C 22,8 C 53 % 1025,4 hPa 0,0 l/m 2 min 0 min 216 W/m 6,4 km/h (2 Bft) 91,49 %
27.06.2019 19:52 25,7 C 23,9 C 22,8 C 54 % 1025,4 hPa 0,0 l/m 2 min 0 min 153 W/m 9,7 km/h (2 Bft) 93,62 %
27.06.2019 19:54 25,6 C 23,9 C 22,8 C 54 % 1025,5 hPa 0,0 l/m 0 min 0 min 70 W/m 16,1 km/h (3 Bft) 95,65 %
27.06.2019 19:56 25,4 C 23,9 C 22,8 C 54 % 1025,4 hPa 0,0 l/m 0 min 0 min 48 W/m 9,7 km/h (2 Bft) 94,92 %
27.06.2019 19:58 25,3 C 23,3 C 22,8 C 54 % 1025,4 hPa 0,0 l/m 0 min 0 min 47 W/m 16,1 km/h (3 Bft) 91,49 %
27.06.2019 20:00 25,2 C 23,3 C 22,8 C 55 % 1025,4 hPa 0,0 l/m 0 min 0 min 46 W/m 9,7 km/h (2 Bft) 95,74 %
27.06.2019 20:02 25,2 C 23,3 C 22,8 C 55 % 1025,4 hPa 0,0 l/m 0 min 0 min 46 W/m 9,7 km/h (2 Bft) 97,14 %
27.06.2019 20:04 25,1 C 23,3 C 22,8 C 56 % 1025,4 hPa 0,0 l/m 0 min 0 min 44 W/m 6,4 km/h (2 Bft) 93,10 %
27.06.2019 20:06 25,1 C 23,3 C 22,8 C 56 % 1025,4 hPa 0,0 l/m 0 min 0 min 44 W/m 6,4 km/h (2 Bft) 97,14 %
27.06.2019 20:08 25,0 C 23,3 C 22,2 C 56 % 1025,4 hPa 0,0 l/m 0 min 0 min 43 W/m 6,4 km/h (2 Bft) 96,61 %
27.06.2019 20:10 24,9 C 22,8 C 22,2 C 57 % 1025,4 hPa 0,0 l/m 0 min 0 min 42 W/m 3,2 km/h (1 Bft) 97,87 %
27.06.2019 20:12 24,8 C 22,8 C 22,2 C 57 % 1025,5 hPa 0,0 l/m 0 min 0 min 41 W/m 9,7 km/h (2 Bft) 97,87 %
27.06.2019 20:14 24,7 C 22,8 C 22,2 C 57 % 1025,5 hPa 0,0 l/m 0 min 0 min 40 W/m 12,9 km/h (3 Bft) 97,83 %
27.06.2019 20:16 24,6 C 22,8 C 22,2 C 57 % 1025,5 hPa 0,0 l/m 0 min 0 min 39 W/m 6,4 km/h (2 Bft) 95,74 %
27.06.2019 20:18 24,5 C 22,8 C 22,2 C 57 % 1025,5 hPa 0,0 l/m 0 min 0 min 39 W/m 6,4 km/h (2 Bft) 97,87 %
27.06.2019 20:20 24,4 C 22,8 C 22,2 C 57 % 1025,4 hPa 0,0 l/m 0 min 0 min 37 W/m 9,7 km/h (2 Bft) 100,00 %
27.06.2019 20:22 24,3 C 22,8 C 22,2 C 58 % 1025,4 hPa 0,0 l/m 0 min 0 min 37 W/m 6,4 km/h (2 Bft) 97,87 %
27.06.2019 20:24 24,2 C 22,8 C 22,2 C 57 % 1025,5 hPa 0,0 l/m 0 min 0 min 35 W/m 16,1 km/h (3 Bft) 100,00 %
27.06.2019 20:26 24,2 C 22,8 C 22,2 C 58 % 1025,5 hPa 0,0 l/m 0 min 0 min 35 W/m 9,7 km/h (2 Bft) 100,00 %
27.06.2019 20:28 24,1 C 22,2 C 22,2 C 58 % 1025,5 hPa 0,0 l/m 0 min 0 min 33 W/m 6,4 km/h (2 Bft) 100,00 %
27.06.2019 20:30 24,1 C 22,2 C 22,2 C 58 % 1025,5 hPa 0,0 l/m 0 min 0 min 33 W/m 12,9 km/h (3 Bft) 97,87 %
27.06.2019 20:32 23,9 C 22,2 C 22,2 C 58 % 1025,4 hPa 0,0 l/m 0 min 0 min 32 W/m 9,7 km/h (2 Bft) 97,87 %
27.06.2019 20:34 23,9 C 22,2 C 21,7 C 58 % 1025,4 hPa 0,0 l/m 0 min 0 min 31 W/m 6,4 km/h (2 Bft) 100,00 %
27.06.2019 20:36 23,8 C 22,2 C 21,7 C 59 % 1025,5 hPa 0,0 l/m 0 min 0 min 30 W/m 9,7 km/h (2 Bft) 100,00 %
27.06.2019 20:38 23,7 C 22,2 C 21,7 C 59 % 1025,5 hPa 0,0 l/m 0 min 0 min 29 W/m 12,9 km/h (3 Bft) 100,00 %
27.06.2019 20:40 23,6 C 21,7 C 21,7 C 59 % 1025,5 hPa 0,0 l/m 0 min 0 min 28 W/m 9,7 km/h (2 Bft) 100,00 %
27.06.2019 20:42 23,5 C 21,7 C 21,7 C 59 % 1025,5 hPa 0,0 l/m 0 min 0 min 27 W/m 6,4 km/h (2 Bft) 100,00 %
27.06.2019 20:44 23,4 C 21,7 C 21,1 C 59 % 1025,4 hPa 0,0 l/m 0 min 0 min 26 W/m 16,1 km/h (3 Bft) 100,00 %
27.06.2019 20:46 23,4 C 21,7 C 21,1 C 60 % 1025,4 hPa 0,0 l/m 0 min 0 min 26 W/m 6,4 km/h (2 Bft) 100,00 %
27.06.2019 20:48 23,3 C 21,7 C 21,1 C 60 % 1025,4 hPa 0,0 l/m 0 min 0 min 25 W/m 6,4 km/h (2 Bft) 100,00 %
27.06.2019 20:50 23,2 C 21,7 C 21,1 C 60 % 1025,4 hPa 0,0 l/m 0 min 0 min 25 W/m 6,4 km/h (2 Bft) 100,00 %
27.06.2019 20:52 23,2 C 21,1 C 21,1 C 60 % 1025,4 hPa 0,0 l/m 0 min 0 min 23 W/m 6,4 km/h (2 Bft) 100,00 %
27.06.2019 20:54 23,1 C 21,1 C 21,1 C 61 % 1025,4 hPa 0,0 l/m 0 min 0 min 23 W/m 6,4 km/h (2 Bft) 100,00 %
27.06.2019 20:56 23,1 C 21,1 C 21,1 C 61 % 1025,4 hPa 0,0 l/m 0 min 0 min 21 W/m 9,7 km/h (2 Bft) 98,31 %
27.06.2019 20:58 22,9 C 21,1 C 21,1 C 61 % 1025,4 hPa 0,0 l/m 0 min 0 min 21 W/m 9,7 km/h (2 Bft) 100,00 %
27.06.2019 21:00 22,9 C 21,1 C 21,1 C 61 % 1025,4 hPa 0,0 l/m 0 min 0 min 21 W/m 9,7 km/h (2 Bft) 97,87 %
27.06.2019 21:02 22,8 C 21,1 C 21,1 C 61 % 1025,4 hPa 0,0 l/m 0 min 0 min 19 W/m 12,9 km/h (3 Bft) 100,00 %
27.06.2019 21:04 22,8 C 21,1 C 21,1 C 62 % 1025,4 hPa 0,0 l/m 0 min 0 min 19 W/m 6,4 km/h (2 Bft) 100,00 %
27.06.2019 21:06 22,7 C 21,1 C 21,1 C 62 % 1025,4 hPa 0,0 l/m 0 min 0 min 19 W/m 9,7 km/h (2 Bft) 97,87 %
27.06.2019 21:08 22,7 C 21,1 C 21,1 C 62 % 1025,4 hPa 0,0 l/m 0 min 0 min 18 W/m 9,7 km/h (2 Bft) 100,00 %
27.06.2019 21:10 22,6 C 21,1 C 20,6 C 62 % 1025,4 hPa 0,0 l/m 0 min 0 min 18 W/m 6,4 km/h (2 Bft) 100,00 %
27.06.2019 21:12 22,5 C 20,6 C 20,6 C 62 % 1025,4 hPa 0,0 l/m 0 min 0 min 16 W/m 3,2 km/h (1 Bft) 97,83 %
27.06.2019 21:14 22,4 C 20,6 C 20,6 C 62 % 1025,4 hPa 0,0 l/m 0 min 0 min 16 W/m 6,4 km/h (2 Bft) 100,00 %
27.06.2019 21:16 22,4 C 20,6 C 20,6 C 63 % 1025,3 hPa 0,0 l/m 0 min 0 min 15 W/m 6,4 km/h (2 Bft) 100,00 %
27.06.2019 21:18 22,4 C 20,6 C 20,6 C 63 % 1025,4 hPa 0,0 l/m 0 min 0 min 14 W/m 6,4 km/h (2 Bft) 100,00 %
27.06.2019 21:20 22,3 C 20,6 C 20,0 C 63 % 1025,4 hPa 0,0 l/m 0 min 0 min 14 W/m 6,4 km/h (2 Bft) 100,00 %
27.06.2019 21:22 22,2 C 20,0 C 20,0 C 63 % 1025,4 hPa 0,0 l/m 0 min 0 min 13 W/m 6,4 km/h (2 Bft) 100,00 %
27.06.2019 21:24 22,2 C 20,0 C 20,0 C 63 % 1025,4 hPa 0,0 l/m 0 min 0 min 12 W/m 6,4 km/h (2 Bft) 100,00 %
27.06.2019 21:26 22,1 C 20,0 C 20,0 C 63 % 1025,4 hPa 0,0 l/m 0 min 0 min 12 W/m 9,7 km/h (2 Bft) 100,00 %
27.06.2019 21:28 22,1 C 20,0 C 20,0 C 64 % 1025,4 hPa 0,0 l/m 0 min 0 min 11 W/m 6,4 km/h (2 Bft) 100,00 %
27.06.2019 21:30 22,0 C 20,0 C 20,0 C 64 % 1025,5 hPa 0,0 l/m 0 min 0 min 11 W/m 6,4 km/h (2 Bft) 100,00 %
27.06.2019 21:32 21,9 C 20,0 C 20,0 C 64 % 1025,6 hPa 0,0 l/m 0 min 0 min 11 W/m 19,3 km/h (3 Bft) 100,00 %
27.06.2019 21:34 21,8 C 20,0 C 20,0 C 64 % 1025,5 hPa 0,0 l/m 0 min 0 min 10 W/m 9,7 km/h (2 Bft) 100,00 %
27.06.2019 21:36 21,8 C 20,0 C 20,0 C 64 % 1025,5 hPa 0,0 l/m 0 min 0 min 9 W/m 3,2 km/h (1 Bft) 100,00 %
27.06.2019 21:38 21,7 C 20,0 C 20,0 C 65 % 1025,6 hPa 0,0 l/m 0 min 0 min 9 W/m 6,4 km/h (2 Bft) 100,00 %
27.06.2019 21:40 21,7 C 20,0 C 19,4 C 65 % 1025,5 hPa 0,0 l/m 0 min 0 min 8 W/m 9,7 km/h (2 Bft) 97,83 %
27.06.2019 21:42 21,7 C 19,4 C 19,4 C 65 % 1025,6 hPa 0,0 l/m 0 min 0 min 7 W/m 3,2 km/h (1 Bft) 100,00 %
27.06.2019 21:44 21,6 C 19,4 C 19,4 C 65 % 1025,6 hPa 0,0 l/m 0 min 0 min 7 W/m 22,5 km/h (4 Bft) 97,87 %
27.06.2019 21:46 21,5 C 19,4 C 19,4 C 65 % 1025,6 hPa 0,0 l/m 0 min 0 min 6 W/m 6,4 km/h (2 Bft) 97,87 %
27.06.2019 21:48 21,4 C 19,4 C 19,4 C 66 % 1025,7 hPa 0,0 l/m 0 min 0 min 5 W/m 9,7 km/h (2 Bft) 100,00 %
27.06.2019 21:50 21,4 C 19,4 C 19,4 C 66 % 1025,7 hPa 0,0 l/m 0 min 0 min 5 W/m 6,4 km/h (2 Bft) 100,00 %
27.06.2019 21:52 21,3 C 19,4 C 19,4 C 66 % 1025,7 hPa 0,0 l/m 0 min 0 min 3 W/m 9,7 km/h (2 Bft) 100,00 %
27.06.2019 21:54 21,2 C 19,4 C 19,4 C 66 % 1025,7 hPa 0,0 l/m 0 min 0 min 0 W/m 12,9 km/h (3 Bft) 97,87 %
27.06.2019 21:56 21,2 C 19,4 C 19,4 C 67 % 1025,8 hPa 0,0 l/m 0 min 0 min 0 W/m 9,7 km/h (2 Bft) 95,74 %
27.06.2019 21:58 21,1 C 19,4 C 19,4 C 67 % 1025,7 hPa 0,0 l/m 0 min 0 min 0 W/m 6,4 km/h (2 Bft) 100,00 %
27.06.2019 22:00 21,0 C 18,9 C 18,9 C 67 % 1025,7 hPa 0,0 l/m 0 min 0 min 0 W/m 6,4 km/h (2 Bft) 100,00 %
27.06.2019 22:02 21,0 C 18,9 C 18,9 C 67 % 1025,8 hPa 0,0 l/m 0 min 0 min 0 W/m 16,1 km/h (3 Bft) 97,83 %
27.06.2019 22:04 20,9 C 18,9 C 18,9 C 68 % 1025,8 hPa 0,0 l/m 0 min 0 min 0 W/m 6,4 km/h (2 Bft) 95,74 %
27.06.2019 22:06 20,8 C 18,9 C 18,9 C 68 % 1025,8 hPa 0,0 l/m 0 min 0 min 0 W/m 6,4 km/h (2 Bft) 93,62 %
27.06.2019 22:08 20,8 C 18,9 C 18,9 C 68 % 1025,8 hPa 0,0 l/m 0 min 0 min 0 W/m 9,7 km/h (2 Bft) 95,74 %
27.06.2019 22:10 20,7 C 18,9 C 18,9 C 68 % 1025,8 hPa 0,0 l/m 0 min 0 min 0 W/m 6,4 km/h (2 Bft) 95,74 %
27.06.2019 22:12 20,7 C 18,9 C 18,9 C 68 % 1025,8 hPa 0,0 l/m 0 min 0 min 0 W/m 6,4 km/h (2 Bft) 95,74 %
27.06.2019 22:14 20,6 C 18,9 C 18,9 C 68 % 1025,9 hPa 0,0 l/m 0 min 0 min 0 W/m 9,7 km/h (2 Bft) 95,65 %
27.06.2019 22:16 20,6 C 18,9 C 18,9 C 68 % 1025,8 hPa 0,0 l/m 0 min 0 min 0 W/m 9,7 km/h (2 Bft) 93,62 %
27.06.2019 22:18 20,5 C 18,9 C 18,9 C 68 % 1025,8 hPa 0,0 l/m 0 min 0 min 0 W/m 9,7 km/h (2 Bft) 95,74 %
27.06.2019 22:20 20,4 C 18,9 C 18,9 C 68 % 1025,9 hPa 0,0 l/m 0 min 0 min 0 W/m 9,7 km/h (2 Bft) 95,74 %
27.06.2019 22:22 20,3 C 18,3 C 18,3 C 68 % 1025,9 hPa 0,0 l/m 0 min 0 min 0 W/m 6,4 km/h (2 Bft) 93,62 %
27.06.2019 22:24 20,3 C 18,3 C 18,3 C 68 % 1025,9 hPa 0,0 l/m 0 min 0 min 0 W/m 6,4 km/h (2 Bft) 95,74 %
27.06.2019 22:26 20,2 C 18,3 C 18,3 C 69 % 1025,9 hPa 0,0 l/m 0 min 0 min 0 W/m 6,4 km/h (2 Bft) 95,65 %
27.06.2019 22:28 20,2 C 18,3 C 18,3 C 69 % 1025,9 hPa 0,0 l/m 0 min 0 min 0 W/m 6,4 km/h (2 Bft) 95,74 %
27.06.2019 22:30 20,1 C 18,3 C 18,3 C 69 % 1025,9 hPa 0,0 l/m 0 min 0 min 0 W/m 12,9 km/h (3 Bft) 95,74 %
27.06.2019 22:32 20,1 C 18,3 C 18,3 C 69 % 1025,9 hPa 0,0 l/m 0 min 0 min 0 W/m 6,4 km/h (2 Bft) 95,74 %
27.06.2019 22:34 20,0 C 18,3 C 18,3 C 69 % 1025,9 hPa 0,0 l/m 0 min 0 min 0 W/m 6,4 km/h (2 Bft) 95,74 %
27.06.2019 22:36 19,9 C 18,3 C 18,3 C 69 % 1026,0 hPa 0,0 l/m 0 min 0 min 0 W/m 3,2 km/h (1 Bft) 91,49 %
27.06.2019 22:38 19,9 C 17,8 C 18,3 C 69 % 1026,0 hPa 0,0 l/m 0 min 0 min 0 W/m 6,4 km/h (2 Bft) 95,65 %
27.06.2019 22:40 19,8 C 17,8 C 17,8 C 70 % 1026,0 hPa 0,0 l/m 0 min 0 min 0 W/m 6,4 km/h (2 Bft) 93,62 %
27.06.2019 22:42 19,8 C 17,8 C 17,8 C 70 % 1026,0 hPa 0,0 l/m 0 min 0 min 0 W/m 6,4 km/h (2 Bft) 97,87 %
27.06.2019 22:44 19,7 C 17,8 C 17,8 C 70 % 1026,0 hPa 0,0 l/m 0 min 0 min 0 W/m 6,4 km/h (2 Bft) 95,74 %
27.06.2019 22:46 19,7 C 17,8 C 17,8 C 70 % 1026,0 hPa 0,0 l/m 0 min 0 min 0 W/m 6,4 km/h (2 Bft) 97,87 %
27.06.2019 22:48 19,6 C 17,8 C 17,8 C 70 % 1026,0 hPa 0,0 l/m 0 min 0 min 0 W/m 6,4 km/h (2 Bft) 97,87 %
27.06.2019 22:50 19,6 C 17,8 C 17,8 C 70 % 1026,0 hPa 0,0 l/m 0 min 0 min 0 W/m 6,4 km/h (2 Bft) 95,65 %
27.06.2019 22:52 19,6 C 17,8 C 17,8 C 70 % 1026,0 hPa 0,0 l/m 0 min 0 min 0 W/m 12,9 km/h (3 Bft) 97,87 %
27.06.2019 22:54 19,5 C 17,8 C 17,8 C 70 % 1026,1 hPa 0,0 l/m 0 min 0 min 0 W/m 6,4 km/h (2 Bft) 97,87 %
27.06.2019 22:56 19,4 C 17,8 C 17,8 C 70 % 1026,1 hPa 0,0 l/m 0 min 0 min 0 W/m 12,9 km/h (3 Bft) 97,87 %
27.06.2019 22:58 19,4 C 17,8 C 17,8 C 70 % 1026,0 hPa 0,0 l/m 0 min 0 min 0 W/m 6,4 km/h (2 Bft) 97,87 %
27.06.2019 23:00 19,3 C 17,8 C 17,8 C 70 % 1026,1 hPa 0,0 l/m 0 min 0 min 0 W/m 6,4 km/h (2 Bft) 97,87 %
27.06.2019 23:02 19,3 C 17,8 C 17,8 C 70 % 1026,0 hPa 0,0 l/m 0 min 0 min 0 W/m 9,7 km/h (2 Bft) 97,83 %
27.06.2019 23:04 19,2 C 17,8 C 17,8 C 70 % 1026,0 hPa 0,0 l/m 0 min 0 min 0 W/m 6,4 km/h (2 Bft) 97,87 %
27.06.2019 23:06 19,2 C 17,8 C 17,8 C 70 % 1026,0 hPa 0,0 l/m 0 min 0 min 0 W/m 6,4 km/h (2 Bft) 93,62 %
27.06.2019 23:08 19,1 C 17,2 C 17,8 C 71 % 1026,0 hPa 0,0 l/m 0 min 0 min 0 W/m 9,7 km/h (2 Bft) 97,87 %
27.06.2019 23:10 19,1 C 17,2 C 17,2 C 71 % 1026,1 hPa 0,0 l/m 0 min 0 min 0 W/m 6,4 km/h (2 Bft) 97,87 %
27.06.2019 23:12 19,1 C 17,2 C 17,2 C 71 % 1026,1 hPa 0,0 l/m 0 min 0 min 0 W/m 6,4 km/h (2 Bft) 97,83 %
27.06.2019 23:14 19,0 C 17,2 C 17,2 C 71 % 1026,1 hPa 0,0 l/m 0 min 0 min 0 W/m 9,7 km/h (2 Bft) 95,74 %
27.06.2019 23:16 18,9 C 17,2 C 17,2 C 71 % 1026,1 hPa 0,0 l/m 0 min 0 min 0 W/m 6,4 km/h (2 Bft) 95,74 %
27.06.2019 23:18 18,9 C 17,2 C 17,2 C 71 % 1026,0 hPa 0,0 l/m 0 min 0 min 0 W/m 6,4 km/h (2 Bft) 97,87 %
27.06.2019 23:20 18,9 C 17,2 C 17,2 C 71 % 1026,1 hPa 0,0 l/m 0 min 0 min 0 W/m 3,2 km/h (1 Bft) 97,87 %
27.06.2019 23:22 18,8 C 17,2 C 17,2 C 71 % 1026,0 hPa 0,0 l/m 0 min 0 min 0 W/m 6,4 km/h (2 Bft) 95,74 %
27.06.2019 23:24 18,8 C 17,2 C 17,2 C 71 % 1026,0 hPa 0,0 l/m 0 min 0 min 0 W/m 6,4 km/h (2 Bft) 97,83 %
27.06.2019 23:26 18,7 C 17,2 C 17,2 C 71 % 1026,1 hPa 0,0 l/m 0 min 0 min 0 W/m 6,4 km/h (2 Bft) 97,87 %
27.06.2019 23:28 18,7 C 16,7 C 16,7 C 72 % 1026,2 hPa 0,0 l/m 0 min 0 min 0 W/m 3,2 km/h (1 Bft) 97,87 %
27.06.2019 23:30 18,7 C 16,7 C 16,7 C 72 % 1026,1 hPa 0,0 l/m 0 min 0 min 0 W/m 3,2 km/h (1 Bft) 97,87 %
27.06.2019 23:32 18,6 C 16,7 C 16,7 C 72 % 1026,1 hPa 0,0 l/m 0 min 0 min 0 W/m 3,2 km/h (1 Bft) 97,87 %
27.06.2019 23:34 18,6 C 16,7 C 16,7 C 71 % 1026,1 hPa 0,0 l/m 0 min 0 min 0 W/m 0,0 km/h (0 Bft) 97,87 %
27.06.2019 23:36 18,6 C 16,7 C 16,7 C 71 % 1026,1 hPa 0,0 l/m 0 min 0 min 0 W/m 6,4 km/h (2 Bft) 97,83 %
27.06.2019 23:38 18,6 C 16,7 C 16,7 C 72 % 1026,0 hPa 0,0 l/m 0 min 0 min 0 W/m 3,2 km/h (1 Bft) 95,74 %
27.06.2019 23:40 18,5 C 16,7 C 16,7 C 72 % 1026,0 hPa 0,0 l/m 0 min 0 min 0 W/m 3,2 km/h (1 Bft) 97,87 %
27.06.2019 23:42 18,4 C 16,7 C 16,7 C 72 % 1026,0 hPa 0,0 l/m 0 min 0 min 0 W/m 0,0 km/h (0 Bft) 95,74 %
27.06.2019 23:44 18,4 C 16,7 C 16,7 C 72 % 1026,1 hPa 0,0 l/m 0 min 0 min 0 W/m 3,2 km/h (1 Bft) 97,87 %
27.06.2019 23:46 18,4 C 16,7 C 16,7 C 72 % 1026,1 hPa 0,0 l/m 0 min 0 min 0 W/m 3,2 km/h (1 Bft) 97,87 %
27.06.2019 23:48 18,4 C 16,1 C 16,1 C 72 % 1026,1 hPa 0,0 l/m 0 min 0 min 0 W/m 0,0 km/h (0 Bft) 97,83 %
27.06.2019 23:50 18,3 C 16,1 C 16,1 C 72 % 1026,0 hPa 0,0 l/m 0 min 0 min 0 W/m 3,2 km/h (1 Bft) 97,87 %
27.06.2019 23:52 18,3 C 16,1 C 16,1 C 73 % 1026,0 hPa 0,0 l/m 0 min 0 min 0 W/m 3,2 km/h (1 Bft) 97,87 %
27.06.2019 23:54 18,3 C 16,1 C 16,1 C 73 % 1026,0 hPa 0,0 l/m 0 min 0 min 0 W/m 6,4 km/h (2 Bft) 97,87 %
27.06.2019 23:56 18,2 C 16,1 C 16,1 C 73 % 1026,0 hPa 0,0 l/m 0 min 0 min 0 W/m 6,4 km/h (2 Bft) 97,87 %
27.06.2019 23:58 18,2 C 16,1 C 16,1 C 73 % 1026,0 hPa 0,0 l/m 0 min 0 min 0 W/m 3,2 km/h (1 Bft) 97,87 %
_ Min-Zeit 05:34 04:18 04:28 15:48 00:00 - - - - 23:34 00:02
Minimum _ 15,3 C 14,4 C 14,4 C 42 % 1024,9 hPa - - - - 0,0 km/h (0 Bft) 15,38 %
_ Max-Zeit 16:26 13:04 13:42 05:16 09:54 00:00 12:08 00:00 13:34 18:40 00:10
Maximum _ 29,4 C 33,9 C 38,3 C 90 % 1028,2 hPa 0,0 l/m 4 min 0 min 987 W/m 22,5 km/h
W (4 Bft)
100,00 %
Durchschnitt _ 22,1 C 23,1 C 23,5 C 67 % 1026,5 hPa #0,0 l/m #10:38 h #0 min. 500 W/m 8,5 km/h (2 Bft) 97,38 %
© 2019 W. Hausmann